GFSNW_sfc_30mbdewp_042.txt.gz
Dewpoint
41 42 43 42 43 45 45 44 37 49 51 40 38 37 37 37 35 37 37 36 30 22 20 18 18 17 18 30 30 25 30 28 22 22 28 31 29 25 24 18 16 23 20 17
40 41 42 41 44 45 43 40 40 49 47 35 32 36 37 36 34 36 36 33 32 26 22 22 24 25 34 32 28 26 31 28 23 23 25 29 27 24 26 28 26 20 18 18
40 41 41 41 44 44 43 39 36 44 45 39 31 32 34 36 35 36 39 38 37 32 24 26 24 29 32 35 31 33 29 26 22 17 19 24 24 25 27 23 20 21 21 20
41 41 41 41 44 46 43 40 34 38 36 38 32 31 33 34 33 37 37 34 35 35 25 23 29 33 33 34 31 32 27 23 22 21 23 25 24 24 25 22 22 19 17 20
40 41 42 43 43 46 41 37 38 40 39 38 36 31 31 30 30 30 29 34 34 32 26 23 27 30 31 26 32 28 31 21 24 21 27 24 23 23 23 23 22 24 22 21
40 39 42 43 44 46 40 41 43 41 35 38 37 35 31 29 29 31 31 34 33 31 29 30 29 32 31 30 27 29 29 27 25 19 24 22 20 21 21 22 24 23 20 22
37 41 43 43 43 46 43 40 42 41 35 39 38 35 33 31 30 27 33 33 34 34 39 37 36 37 39 37 36 35 31 30 28 23 22 20 23 23 22 21 21 22 23 25
38 41 42 43 43 43 44 45 41 43 34 37 40 37 34 31 32 36 30 36 35 40 39 34 32 32 32 33 32 34 35 32 28 24 21 23 22 17 18 18 23 25 26 28
40 40 41 41 42 42 43 43 47 44 41 37 38 39 35 32 35 34 38 43 45 42 38 31 27 28 29 28 26 33 34 33 29 29 21 19 21 22 24 25 23 29 29 31
40 40 41 41 42 41 43 42 46 43 41 44 40 37 36 34 34 38 43 41 41 42 33 30 28 26 29 26 26 25 29 30 28 26 22 17 24 24 26 14 17 30 31 31
40 40 41 42 42 42 43 42 47 42 40 44 47 38 34 34 38 38 42 41 42 40 31 30 31 25 29 29 30 27 25 28 28 28 20 18 30 25 20 26 33 33 34 36
41 41 41 42 42 42 44 40 46 47 42 44 46 47 48 44 40 43 45 39 39 41 35 37 36 34 32 31 29 35 26 25 25 28 25 32 32 31 34 36 36 39 39 40
42 42 42 42 43 45 44 42 45 43 41 41 45 46 49 50 46 45 40 44 45 44 43 40 38 31 33 28 29 31 32 37 32 32 35 37 39 40 40 38 36 36 37 36
44 43 43 45 45 45 43 42 47 42 43 41 44 51 48 50 48 45 43 42 46 49 46 40 36 30 37 30 31 29 32 32 31 37 38 38 38 37 34 33 33 33 33 33
44 45 45 45 45 45 44 44 47 49 44 40 42 48 50 51 50 43 45 44 45 44 39 32 33 41 39 37 34 32 33 30 28 31 37 35 37 36 35 34 33 33 32 32
45 45 45 45 44 44 43 39 43 48 50 42 39 45 49 50 52 48 49 47 48 45 40 41 41 43 35 31 30 37 39 40 38 37 38 37 36 35 35 34 34 33 32 32
45 45 45 45 45 45 41 39 45 46 49 42 40 38 48 50 49 48 49 48 47 45 44 42 38 41 38 33 30 38 38 38 38 37 36 35 36 34 34 34 33 33 33 33
44 44 45 46 46 46 44 47 50 50 45 44 40 40 44 48 44 45 47 45 43 43 42 42 39 42 37 32 37 37 37 38 37 37 37 36 34 32 32 32 32 31 31 31
44 45 47 47 46 43 43 48 49 50 46 40 39 38 39 44 42 41 42 40 39 41 39 40 37 37 37 36 37 36 36 36 35 35 34 33 32 31 32 31 30 29 28 28
46 45 43 41 45 50 48 46 44 43 42 40 39 41 39 41 39 39 38 39 37 35 38 39 36 33 35 36 37 37 36 35 35 33 32 32 31 31 31 30 31 30 27 27
44 44 43 48 50 46 43 39 37 38 34 36 39 40 39 42 37 37 38 36 35 33 35 36 34 33 34 35 36 36 36 35 35 34 33 32 32 32 31 30 29 28 27 27
47 47 49 47 43 37 33 33 34 34 32 36 37 39 40 40 40 37 36 33 33 30 36 33 30 32 34 36 36 37 36 35 34 34 33 33 32 31 30 28 27 27 28 27
45 42 38 37 35 31 28 27 30 30 34 36 38 36 38 37 37 35 33 31 30 33 31 28 30 34 35 35 36 35 35 35 33 32 32 31 31 30 27 26 26 27 25 22
37 33 31 31 29 28 29 31 31 32 34 37 36 36 36 36 35 34 30 33 33 28 26 26 31 34 34 35 34 32 31 31 30 30 30 29 29 29 29 25 24 22 21 17
32 32 27 27 30 31 32 32 32 33 35 37 36 35 35 34 32 32 32 29 26 27 26 30 32 34 32 32 30 30 29 29 29 29 29 28 27 27 25 24 22 22 20 16
30 30 30 31 31 30 30 31 32 34 34 35 35 33 31 31 31 29 28 26 26 29 30 32 34 32 30 29 29 30 30 30 29 29 28 27 25 23 22 21 18 19 18 15
29 28 31 31 30 29 30 31 31 34 35 32 32 29 29 32 30 27 29 26 28 30 31 33 34 31 32 32 32 32 31 30 29 30 28 26 23 22 20 17 17 17 18 16

GFSNW_sfc_30mbdewp_045.txt.gz
Dewpoint
41 44 44 43 45 44 45 40 33 48 50 41 39 32 36 36 34 37 37 37 36 32 23 21 20 19 19 21 26 21 28 23 18 21 28 30 26 24 22 18 17 24 22 18
43 44 43 43 43 45 43 35 37 49 45 35 35 35 32 36 34 34 35 35 35 33 25 20 21 20 28 34 27 24 30 25 18 19 24 30 25 27 29 27 25 20 16 17
44 44 43 42 42 45 43 36 32 41 43 38 34 33 33 34 36 35 36 38 38 34 29 26 23 26 32 34 31 30 29 28 20 17 18 24 24 25 26 26 22 21 21 20
44 43 42 42 41 42 44 37 31 37 36 37 37 34 33 34 32 36 33 33 36 35 31 25 27 32 33 33 32 32 27 22 24 23 21 24 23 24 27 23 23 20 20 22
44 42 42 42 41 41 41 33 35 38 36 36 35 34 31 32 34 34 33 31 34 30 33 30 26 31 31 29 31 30 29 23 22 22 26 25 24 24 24 25 23 23 23 22
42 42 41 41 41 42 39 37 41 39 35 35 33 31 31 31 33 34 34 33 35 35 35 35 32 33 32 30 29 28 27 25 22 19 24 22 21 23 23 23 24 23 20 21
42 41 40 41 41 40 42 37 41 38 31 35 33 32 33 31 32 30 32 31 30 36 38 37 37 37 37 35 34 32 28 26 25 19 22 16 21 26 23 22 22 22 23 24
41 41 40 41 41 41 40 40 41 40 34 35 35 34 33 32 32 31 30 32 29 35 37 34 33 32 32 30 35 36 33 29 25 21 21 22 23 22 21 18 21 25 26 30
40 40 40 41 42 40 41 43 43 42 39 35 37 36 35 33 31 31 32 34 38 41 37 33 29 29 31 29 28 34 32 32 25 24 22 22 24 24 23 25 19 27 29 30
40 40 41 41 42 42 42 42 45 43 37 41 39 37 36 35 32 31 33 36 41 42 35 31 28 27 31 27 27 27 31 30 29 26 24 24 24 25 25 15 14 28 31 31
38 38 41 43 42 43 42 41 45 41 38 40 44 44 39 38 34 32 40 39 41 38 35 32 29 28 29 28 29 27 28 30 29 26 24 25 26 26 19 22 32 32 33 35
39 41 41 41 42 43 43 39 44 46 40 41 43 43 42 43 43 35 43 38 40 39 36 35 34 28 31 30 25 33 26 29 29 29 28 29 34 29 33 33 32 35 37 37
41 41 41 41 41 42 42 41 46 43 40 38 39 39 44 46 46 47 36 43 44 42 43 39 36 29 32 28 29 32 32 33 27 30 34 36 38 37 37 38 37 39 40 34
41 41 41 41 42 42 42 40 44 42 41 34 37 49 49 52 51 50 44 42 48 47 44 39 36 30 35 29 30 30 32 34 34 35 37 38 37 35 35 35 35 35 34 34
41 42 42 41 42 43 43 42 42 43 38 37 39 44 49 52 52 49 46 46 46 42 39 36 32 39 37 36 34 30 33 33 31 30 36 33 36 35 35 34 33 33 33 32
42 42 42 42 42 42 40 37 40 43 47 37 35 43 46 50 51 47 45 44 45 42 37 37 41 43 37 33 30 34 37 36 34 32 39 37 36 35 34 33 33 32 31 31
43 42 42 42 44 42 37 35 40 41 46 41 36 37 43 50 50 48 48 47 45 45 42 39 39 41 36 31 29 35 39 38 37 37 36 34 34 33 34 33 33 32 32 32
44 44 44 44 44 42 39 43 47 44 42 41 35 37 41 48 44 44 47 43 43 42 41 40 38 40 35 30 36 38 37 37 36 36 37 35 34 33 32 32 32 31 31 30
44 44 45 44 41 38 39 49 49 49 42 37 37 36 37 45 41 42 42 42 40 41 40 40 39 36 34 35 37 37 37 36 35 34 33 33 32 31 31 31 30 29 28 28
45 43 41 36 39 46 46 42 40 40 41 42 37 40 39 42 38 38 39 39 38 36 38 39 36 35 35 35 37 37 36 35 34 32 31 31 31 31 30 29 28 28 27 28
42 38 38 46 48 43 39 36 36 36 35 36 38 39 39 41 38 36 37 35 34 34 36 37 35 34 35 36 36 36 35 35 35 35 33 32 31 30 30 29 28 27 27 27
40 46 46 44 40 38 33 31 33 32 33 35 37 38 40 40 40 36 36 33 33 31 36 34 32 33 35 36 36 36 36 35 35 34 33 33 31 31 30 28 27 26 27 24
46 41 37 37 34 31 30 28 30 31 33 35 36 36 37 36 36 33 32 30 30 33 32 31 30 33 36 37 36 36 35 35 34 34 33 32 30 29 28 27 27 26 25 23
36 34 28 30 27 27 28 29 31 32 33 35 36 35 35 35 33 32 29 32 31 27 25 25 31 34 35 35 35 34 33 33 32 31 30 28 27 26 26 27 25 22 18 19
32 32 26 27 30 31 31 32 32 32 34 36 35 35 35 32 32 32 31 29 26 26 25 29 32 34 34 33 32 31 31 30 30 30 29 28 25 24 23 23 21 18 17 16
30 29 29 30 29 29 30 30 31 34 34 35 34 31 30 30 30 28 28 25 24 27 29 32 32 31 31 31 30 30 30 30 30 29 29 28 27 23 22 22 19 17 15 15
28 28 31 30 30 29 30 30 30 33 34 31 32 29 28 32 28 25 27 24 26 29 31 33 30 30 30 31 31 31 30 29 29 28 28 27 25 21 18 17 19 17 16 16

GFSNW_sfc_30mbdewp_048.txt.gz
Dewpoint
44 42 42 45 45 44 43 40 31 43 50 39 39 34 34 35 36 36 35 38 36 33 24 21 20 20 19 22 23 19 26 22 16 18 27 29 26 24 23 20 18 24 21 17
44 43 43 44 46 43 41 36 33 47 44 31 32 35 34 34 34 34 35 35 36 36 27 21 22 22 23 26 23 22 27 21 15 16 23 29 27 27 27 26 24 21 19 19
44 42 43 44 45 43 41 36 28 40 41 33 32 32 33 31 35 35 35 36 38 34 31 28 22 22 29 34 27 29 27 25 16 14 15 22 25 25 28 26 23 23 22 21
44 42 43 44 44 45 42 38 28 36 32 33 33 32 32 31 29 34 35 34 35 35 29 28 25 30 33 33 34 31 26 20 24 22 21 23 23 25 26 25 24 22 22 22
44 42 42 43 43 44 40 34 33 37 34 31 33 33 31 31 31 34 31 32 33 34 35 31 27 32 32 29 32 30 29 23 22 22 25 25 24 24 27 25 24 24 23 22
44 42 42 43 42 43 39 39 39 38 32 33 30 30 30 31 32 32 35 32 32 32 33 33 32 33 33 32 31 29 27 25 22 20 25 23 21 23 23 23 25 24 22 23
44 43 43 42 42 42 40 39 37 35 30 33 31 29 32 31 32 30 32 35 33 33 38 37 37 37 36 34 34 33 27 24 23 20 22 18 21 26 25 24 24 24 23 24
43 43 43 41 40 41 38 42 38 36 30 34 33 32 31 32 32 32 32 33 34 33 32 33 33 32 31 32 36 34 33 26 23 20 20 21 21 22 22 20 18 24 23 28
43 44 43 41 42 41 38 40 42 40 37 31 34 34 32 30 31 32 33 34 34 35 34 29 26 30 29 28 30 33 31 29 23 23 19 17 20 24 24 22 17 26 28 31
43 44 42 41 42 42 38 37 43 41 36 39 37 34 32 33 32 31 32 33 36 38 30 31 27 28 32 27 27 30 30 28 22 22 21 24 27 24 24 17 17 27 31 32
42 42 41 40 41 42 39 36 41 41 37 39 43 42 36 35 33 31 34 32 36 39 32 32 32 29 30 29 29 30 29 28 28 26 25 25 26 25 20 22 27 29 32 33
42 41 41 41 41 41 40 35 39 41 41 40 42 41 41 40 39 34 38 33 37 35 37 35 32 29 30 29 27 31 28 30 28 29 27 30 29 26 28 29 30 32 33 35
41 41 40 40 41 42 40 37 39 40 39 37 38 37 44 43 42 44 35 40 43 41 41 36 35 31 31 27 27 30 30 32 28 29 31 33 37 37 37 36 34 37 36 34
39 40 40 41 41 42 40 38 40 41 38 33 34 44 42 48 46 45 45 41 48 46 44 38 35 32 35 29 30 29 31 32 31 31 36 37 37 36 35 36 37 36 34 34
41 41 42 43 43 43 42 41 43 44 39 34 35 37 42 45 51 49 48 47 45 43 40 37 35 37 35 35 34 31 34 31 28 24 31 29 31 35 36 36 35 34 33 32
41 41 41 42 42 42 40 36 41 44 44 36 31 40 42 48 51 50 49 47 45 42 38 38 41 43 38 31 30 32 34 35 35 30 37 36 35 35 34 34 33 33 32 31
41 42 42 42 42 41 36 35 38 41 43 38 34 35 40 49 49 47 47 47 45 43 40 39 40 41 40 33 29 32 38 38 37 37 35 34 34 34 33 33 32 32 31 31
42 42 42 42 42 40 38 40 46 41 38 37 33 35 39 47 44 43 46 42 42 42 40 38 39 38 35 32 33 37 37 37 36 36 36 35 34 33 32 32 31 31 30 30
42 42 42 41 39 37 36 46 43 44 36 34 35 34 35 44 41 41 42 41 39 41 40 39 40 36 34 35 34 36 36 36 35 34 33 33 32 32 31 31 30 30 29 29
42 41 37 34 37 45 47 44 38 37 37 38 35 39 37 41 38 38 38 38 37 37 38 39 36 36 35 35 36 37 36 34 33 32 31 31 31 31 30 30 30 29 29 29
40 38 35 41 45 40 37 32 33 35 33 36 36 37 38 41 37 34 36 35 35 33 35 37 34 36 34 36 36 36 35 34 34 34 33 33 31 30 29 29 29 29 29 28
40 41 45 42 40 37 33 31 31 32 32 35 35 38 40 39 41 36 33 32 33 32 36 34 32 34 35 36 36 36 36 35 34 33 33 32 31 30 29 28 28 28 27 24
43 40 35 36 33 30 29 27 29 30 32 35 36 35 37 37 38 32 32 31 31 34 33 32 30 33 36 36 36 35 35 34 33 33 32 32 30 29 27 27 27 25 24 23
35 32 28 28 27 27 27 28 30 32 32 34 35 34 35 34 33 31 30 32 32 27 27 26 30 34 35 35 35 34 33 33 32 31 30 29 28 27 27 26 25 24 22 20
31 31 26 27 30 31 31 31 32 32 33 34 35 34 34 32 31 31 31 28 25 25 25 29 31 34 34 33 33 32 31 31 30 29 28 27 27 26 25 25 22 21 21 19
30 29 26 29 28 27 28 29 30 33 32 34 32 31 31 30 30 28 26 25 22 25 28 31 32 32 32 31 31 31 30 30 29 27 27 27 26 25 22 19 19 19 18 16
27 26 27 27 28 25 27 28 28 32 33 30 31 25 23 29 25 22 24 21 25 27 30 31 31 31 30 30 30 30 29 29 28 28 27 25 24 22 19 15 16 15 17 17

GFSNW_sfc_30mbdewp_051.txt.gz
Dewpoint
45 45 45 44 45 45 45 39 30 40 45 36 35 31 33 33 33 36 35 37 37 34 25 21 21 20 20 23 23 21 26 22 18 21 27 28 27 26 25 22 20 24 22 18
46 45 46 44 45 45 42 35 35 42 41 29 30 32 32 33 34 34 35 34 36 37 32 21 22 22 24 25 23 22 27 21 16 16 23 30 27 26 26 26 25 22 20 19
46 46 46 44 44 44 42 36 30 38 38 32 27 30 31 32 33 33 35 36 37 34 31 30 24 24 26 27 24 27 25 23 18 16 16 22 25 26 28 25 23 23 23 22
46 46 46 44 44 44 41 37 31 35 30 31 28 29 29 30 30 32 35 35 33 34 28 28 26 29 32 34 34 29 24 19 22 19 18 22 21 23 28 26 25 23 23 23
46 47 45 44 43 44 38 33 31 32 32 31 30 29 28 29 30 29 30 31 34 33 31 31 29 31 30 30 34 30 29 21 24 21 24 23 21 24 26 27 25 25 24 23
45 47 45 44 44 44 38 39 36 30 32 31 28 28 28 30 32 30 31 32 32 33 34 33 35 35 34 32 31 31 28 25 23 20 25 23 22 24 25 26 27 26 23 25
46 46 45 44 44 44 40 39 36 32 27 32 29 26 30 30 31 29 32 33 30 32 36 37 37 36 36 36 35 33 29 26 25 21 23 19 22 26 25 24 24 25 25 24
46 45 44 44 43 42 41 39 36 33 26 31 31 29 27 31 33 31 30 35 35 35 32 33 28 27 32 33 35 34 31 27 23 21 21 22 21 22 23 21 19 23 24 25
46 44 44 44 43 42 42 39 41 37 28 30 33 31 29 29 31 32 33 35 36 36 33 28 27 22 29 29 31 33 31 29 26 23 20 19 22 23 25 22 18 23 24 27
45 44 43 43 43 43 40 41 42 38 35 38 36 32 31 31 32 31 33 32 33 34 30 29 26 25 32 31 29 31 28 27 24 23 21 22 25 25 24 19 21 24 28 31
44 44 43 43 43 42 39 40 43 38 37 36 40 41 34 33 32 29 33 33 33 36 29 29 30 29 30 30 32 31 28 26 24 24 22 21 28 24 21 26 26 28 32 34
44 43 42 43 42 42 39 37 42 41 37 39 43 43 42 39 34 32 35 30 32 34 31 31 30 30 31 31 27 31 29 29 26 26 25 32 28 27 28 28 27 30 33 35
43 43 42 42 42 41 37 37 39 38 33 35 37 38 45 44 42 39 33 38 40 37 40 36 33 31 32 29 31 32 32 33 29 29 30 31 31 34 36 34 31 33 35 35
43 43 43 43 43 42 37 37 39 36 36 32 31 41 39 45 45 43 42 42 46 44 42 36 35 31 34 31 31 31 32 33 31 30 31 36 36 37 36 36 38 36 36 35
43 42 43 42 41 41 39 40 41 37 35 31 32 38 39 41 46 44 43 43 44 43 40 38 36 36 34 34 34 31 34 31 29 28 30 30 30 36 37 36 36 35 34 33
41 41 41 41 41 41 37 33 39 42 39 32 28 36 36 45 48 46 46 43 44 43 39 38 39 41 37 31 29 32 34 36 38 30 36 35 35 36 36 35 35 34 34 33
42 41 41 41 40 39 33 34 38 41 41 36 33 31 38 43 47 47 47 47 45 43 40 38 38 41 39 34 31 32 34 37 37 37 35 33 34 34 35 34 33 33 32 31
41 41 42 40 40 40 38 40 43 42 38 37 32 33 37 47 43 42 45 44 44 42 40 39 39 39 37 36 37 36 37 37 37 36 36 35 34 33 32 32 32 31 31 30
42 41 42 39 37 35 36 43 42 43 37 32 32 32 34 43 41 41 41 42 40 41 39 38 39 36 35 36 35 37 37 36 36 35 34 33 33 32 32 32 31 31 30 29
41 38 35 33 36 43 43 41 36 36 36 35 30 38 36 40 37 37 38 37 36 36 38 39 37 36 36 35 36 37 37 35 34 33 33 32 32 32 31 31 31 31 29 28
36 35 34 37 44 39 36 33 32 33 31 35 32 29 29 40 35 34 35 34 35 33 36 37 35 35 35 36 36 36 35 34 34 34 33 33 32 31 31 30 30 29 29 27
40 40 42 42 36 33 31 30 31 31 30 35 34 35 36 39 40 34 33 32 32 31 36 36 32 33 35 36 35 35 35 34 34 33 33 32 31 31 30 30 30 29 27 26
41 39 36 36 33 29 28 25 28 30 32 34 36 35 36 37 35 33 32 31 30 33 32 29 28 32 35 35 36 36 36 35 34 33 32 31 30 30 30 28 28 27 26 26
32 32 27 28 25 26 26 28 30 31 32 33 35 33 34 34 32 32 30 31 32 28 24 23 29 31 33 35 35 34 33 33 32 31 29 29 28 28 28 28 28 26 24 24
30 30 24 26 29 29 30 31 31 31 32 33 33 33 34 32 31 31 31 28 24 24 23 27 30 32 32 32 32 31 30 30 30 29 28 27 27 26 26 27 26 24 23 21
29 24 21 25 24 22 24 25 26 31 31 33 33 32 30 28 29 24 22 23 18 21 25 29 31 30 31 30 30 30 29 28 28 27 27 26 25 24 23 24 23 22 21 19
26 22 23 23 22 21 22 24 25 30 32 27 26 20 20 25 21 17 19 16 19 22 25 30 30 29 29 29 29 29 28 27 27 26 25 24 24 24 22 20 21 21 20 19

GFSNW_sfc_30mbdewp_054.txt.gz
Dewpoint
46 46 46 46 46 45 44 38 32 40 43 34 34 31 29 22 25 34 35 35 34 33 25 20 17 19 19 23 23 23 22 21 19 21 27 29 26 24 25 22 22 24 24 19
44 46 46 46 46 45 42 35 36 42 39 28 28 31 27 26 26 30 32 33 34 37 34 24 22 22 24 24 24 22 26 21 18 19 24 28 23 24 23 24 26 19 21 19
43 44 46 47 46 46 41 35 30 37 39 26 26 27 28 24 28 25 33 32 35 34 32 33 28 23 28 28 24 28 27 19 18 16 15 17 22 23 23 24 21 18 20 17
42 43 45 47 46 46 40 36 32 34 29 29 23 26 23 23 24 29 31 32 32 32 30 28 29 29 31 32 31 26 26 20 20 17 16 14 15 15 20 21 21 18 20 18
42 43 44 46 46 46 39 32 31 34 29 30 26 25 26 23 24 24 29 27 31 32 29 28 32 31 30 29 35 29 29 21 24 21 20 19 16 17 17 20 19 22 22 21
43 43 43 44 46 45 38 37 33 30 27 28 27 25 25 25 25 23 23 29 29 31 31 32 33 35 34 31 32 33 31 24 23 19 23 22 23 24 21 21 25 24 20 22
43 43 43 44 46 44 39 36 35 31 24 27 27 24 22 22 24 26 25 26 30 32 37 36 37 36 34 34 34 34 32 30 28 21 25 22 20 26 23 22 23 24 25 24
43 43 43 45 45 44 40 37 34 29 26 26 27 25 23 22 24 27 25 29 29 36 30 26 24 28 30 28 32 36 35 31 28 27 23 21 23 24 25 24 22 24 24 24
43 43 43 46 45 44 41 38 37 34 27 25 26 28 24 23 24 27 27 30 38 35 35 31 23 10 17 24 32 34 34 34 31 27 23 22 21 24 27 26 21 23 23 23
43 43 44 45 44 44 42 40 40 36 28 24 27 31 27 25 24 29 29 34 35 36 34 32 27 21 25 22 27 32 32 32 30 29 27 26 27 26 26 21 21 26 25 26
43 43 45 44 44 43 41 41 42 37 31 30 31 32 31 27 27 29 29 32 34 34 31 30 30 30 29 28 27 32 30 30 30 30 29 26 28 26 22 25 32 30 31 31
43 45 44 44 44 42 41 39 43 42 37 38 41 41 42 42 29 29 33 26 24 33 28 30 26 35 36 27 26 33 30 31 30 29 27 32 30 27 29 33 29 32 32 33
45 44 44 44 44 42 40 40 41 38 35 33 34 35 39 43 42 41 31 33 27 29 30 33 32 30 35 32 28 26 32 35 32 32 29 31 33 30 33 32 31 32 33 35
44 44 43 45 44 43 40 39 40 36 33 29 28 37 35 37 39 43 42 35 39 38 37 34 35 32 30 29 26 30 28 34 32 32 33 34 35 35 33 34 35 35 34 36
44 44 44 45 43 40 41 39 38 36 30 29 29 36 36 40 43 43 43 42 40 41 38 37 33 38 37 38 37 33 34 32 33 30 31 34 31 35 37 35 36 35 35 35
44 44 44 42 40 39 36 34 38 39 37 31 29 36 36 39 39 43 41 40 39 40 38 38 36 39 35 36 32 30 34 34 35 33 37 37 37 36 38 37 36 36 35 35
43 43 43 41 39 37 32 30 35 39 37 31 30 32 34 35 37 45 43 42 39 38 38 38 38 40 40 40 34 33 32 34 35 38 37 35 35 35 37 37 37 36 35 35
42 43 42 40 38 36 33 42 42 40 36 36 30 33 35 38 39 41 45 43 43 41 39 39 37 38 41 35 34 34 36 37 38 38 37 37 36 35 35 35 34 33 33 32
41 41 40 38 36 35 38 44 41 41 37 32 31 31 31 44 41 42 41 43 38 41 40 38 37 36 36 32 32 36 38 38 37 38 36 35 35 34 34 34 33 33 32 32
39 36 33 33 37 43 42 40 36 35 36 38 32 35 32 40 38 37 38 38 37 34 38 41 39 35 35 37 37 37 38 39 37 36 36 35 35 34 34 34 34 34 32 31
36 33 34 37 43 40 38 32 30 31 30 33 33 33 31 35 37 35 37 36 36 32 36 38 37 35 35 37 38 38 38 37 37 37 36 36 36 34 34 34 33 32 31 30
40 39 39 41 36 34 30 29 31 31 28 35 34 35 33 38 42 37 36 34 33 31 36 35 32 30 34 36 37 37 37 36 36 35 35 35 34 34 33 33 32 31 29 28
41 33 33 32 33 27 26 25 28 30 33 35 36 35 38 38 38 34 34 32 31 34 31 26 28 31 32 34 36 35 36 35 34 33 33 33 33 33 32 30 28 28 28 28
33 31 28 28 26 27 28 28 30 31 32 34 37 34 34 35 34 33 31 31 32 29 25 24 28 29 31 31 32 32 31 31 31 31 30 29 29 28 28 28 28 27 25 26
28 28 22 24 27 26 28 29 31 31 32 33 34 33 34 32 31 32 32 29 24 23 21 25 27 30 30 30 30 30 29 29 28 28 27 27 27 26 26 27 27 26 25 25
26 21 19 22 22 21 22 24 25 29 30 32 32 31 30 27 28 23 21 21 17 19 22 25 29 30 29 29 28 28 28 28 28 27 27 27 26 25 24 25 25 24 24 23
24 21 22 20 20 18 21 23 24 29 31 27 27 21 20 24 18 16 17 15 18 20 23 24 29 29 29 29 28 28 28 27 27 26 26 26 27 26 24 22 22 22 22 22

GFSNW_sfc_30mbdewp_057.txt.gz
Dewpoint
47 47 47 47 47 46 45 40 32 36 44 34 35 29 28 28 25 21 15 22 25 9 21 21 19 19 19 23 21 21 20 19 20 22 20 21 25 23 23 21 22 24 21 23
47 47 47 47 47 46 43 36 35 39 41 29 31 27 25 20 25 20 18 24 26 27 26 24 21 20 23 23 23 21 21 18 17 18 22 24 21 25 24 24 24 27 29 22
44 47 47 47 47 47 43 36 30 37 40 33 28 23 20 18 27 26 21 25 24 24 26 29 25 21 27 27 25 26 26 19 19 18 17 19 19 21 22 22 23 22 19 17
42 43 48 47 47 47 43 36 32 35 29 32 29 24 18 15 19 26 26 23 24 24 24 26 29 27 29 30 28 27 25 20 19 18 17 16 15 18 19 19 19 19 19 18
42 43 43 46 46 47 41 32 29 32 29 32 28 25 19 14 17 17 23 26 27 23 21 25 27 29 29 27 29 27 25 23 21 17 18 16 14 13 13 14 15 16 17 16
42 42 42 42 43 47 40 38 31 29 27 31 28 26 21 16 17 17 17 22 24 25 24 33 35 35 34 32 31 28 26 25 21 21 19 17 18 16 15 15 16 16 16 18
43 43 42 42 42 45 40 39 30 32 25 32 27 24 21 17 15 17 18 19 23 29 33 35 33 35 31 35 32 31 31 28 25 24 25 22 21 20 20 18 18 17 18 19
44 43 43 42 43 43 42 38 32 30 28 28 24 22 22 19 19 22 18 21 22 34 33 29 25 23 28 27 32 30 32 32 28 27 24 21 18 22 22 19 18 18 19 21
44 43 43 42 43 43 43 39 35 32 28 24 23 23 22 20 21 21 24 22 27 32 32 27 17 7 10 12 26 30 30 32 33 30 25 20 21 22 23 22 21 22 20 20
43 43 43 42 43 43 43 41 39 34 28 25 26 28 24 23 21 22 24 23 31 34 32 28 21 12 8 8 16 32 34 34 34 32 27 23 22 22 22 23 23 22 21 22
43 43 42 43 43 44 43 41 40 35 30 28 28 29 31 25 23 23 25 25 30 33 32 28 22 20 18 18 21 28 33 31 34 33 29 27 29 27 23 26 27 26 27 25
43 42 42 43 44 44 44 40 40 39 36 36 39 42 43 38 28 23 27 28 29 29 27 26 25 25 28 23 22 20 27 31 31 29 28 31 32 29 29 28 27 30 30 29
43 43 43 43 44 44 43 42 42 39 36 36 36 35 44 44 42 42 32 33 28 28 28 26 28 27 26 30 27 22 29 32 30 29 30 31 31 33 33 32 31 32 32 32
43 43 44 45 43 43 41 41 42 37 35 34 32 33 34 43 43 40 41 38 32 29 30 29 31 31 20 26 24 23 28 29 29 27 26 28 31 34 36 34 33 33 33 33
44 43 43 43 43 41 41 40 40 39 33 31 29 32 33 36 39 36 39 43 39 30 29 31 32 28 20 22 28 26 21 22 27 27 25 31 32 34 36 35 34 36 33 33
45 44 44 43 42 42 39 35 39 41 39 28 26 34 31 29 38 36 38 40 40 34 31 33 29 24 25 29 30 24 19 21 27 29 33 34 36 38 36 35 35 36 35 34
44 43 42 41 40 39 37 35 35 37 32 27 24 22 33 35 37 36 37 39 38 39 36 36 33 29 30 34 33 23 23 27 27 33 36 37 36 33 36 37 37 37 36 35
42 41 41 42 41 41 37 38 37 35 31 30 27 30 35 37 36 34 38 37 38 37 36 36 36 35 39 34 30 29 28 29 33 37 37 38 38 36 36 37 37 36 35 35
41 40 39 39 38 34 39 41 38 40 34 26 31 29 30 40 37 39 39 38 34 35 35 35 35 34 34 31 30 30 31 34 34 37 38 38 37 36 35 35 35 35 35 36
40 37 30 31 38 43 40 37 34 32 33 36 32 36 31 33 36 38 39 39 33 31 38 37 35 33 32 36 37 39 39 39 39 39 38 38 37 36 36 35 35 35 35 34
33 31 34 38 43 40 38 32 32 34 32 34 33 34 31 36 34 35 38 36 37 33 36 33 34 32 30 34 37 38 39 39 38 38 38 38 38 38 37 36 36 35 35 34
39 37 39 40 37 34 30 29 30 29 26 33 31 33 35 37 39 37 37 34 35 32 36 34 26 29 31 32 33 37 37 37 37 37 37 37 36 37 37 36 35 34 33 30
39 30 32 30 33 27 24 23 25 28 34 36 36 34 36 36 37 35 36 33 32 35 30 27 27 29 30 32 32 33 33 33 33 33 34 33 32 32 31 29 29 29 29 28
34 32 28 28 28 26 25 26 28 31 32 35 38 35 35 36 34 33 32 31 33 30 27 24 25 28 30 31 31 30 29 29 29 28 28 28 27 27 28 28 28 27 26 26
27 25 20 22 25 26 26 29 30 31 31 32 35 34 33 32 32 31 32 29 23 22 21 23 26 30 30 30 30 29 28 28 28 28 27 27 27 26 26 27 27 26 25 24
24 19 18 19 21 21 22 24 26 30 29 32 33 32 30 27 28 24 22 21 16 18 22 25 28 29 29 28 28 29 29 29 28 27 26 26 25 25 25 25 25 25 24 23
24 21 22 20 19 18 21 23 25 29 29 28 28 22 21 27 20 16 17 16 18 22 22 23 25 25 27 27 28 28 28 27 27 26 26 26 26 26 23 22 23 23 23 23

GFSNW_sfc_30mbdewp_063.txt.gz
Dewpoint
46 47 47 48 48 48 46 41 32 39 42 34 33 29 29 27 22 25 25 21 18 18 21 20 19 26 31 28 23 21 22 23 20 22 23 22 22 21 21 20 24 28 26 23
46 46 47 48 48 48 44 37 36 41 39 27 29 29 30 28 27 25 22 21 19 20 20 20 22 30 28 31 27 23 22 20 19 21 21 22 20 20 22 23 26 26 23 26
46 47 47 47 48 48 45 36 30 37 39 33 26 27 28 27 29 28 27 23 23 21 20 21 23 30 34 37 31 27 23 21 19 19 22 24 20 21 22 24 26 26 27 25
45 44 45 47 47 48 44 36 32 34 30 31 30 26 26 26 27 26 26 25 25 21 19 21 25 32 36 37 36 27 26 19 21 23 22 25 25 24 22 22 27 27 29 30
43 44 45 46 47 49 43 31 33 34 27 32 32 29 26 25 26 24 25 24 21 22 21 19 26 36 37 38 40 38 30 24 23 21 24 24 23 24 24 23 21 30 29 29
43 43 43 44 44 44 42 40 37 32 29 31 31 29 28 28 27 26 25 24 22 22 22 26 38 42 43 42 40 38 37 26 24 22 24 23 22 23 22 24 25 22 28 29
42 42 43 43 44 44 43 40 36 33 30 28 30 29 29 28 27 25 23 24 20 21 40 42 41 39 39 38 40 43 38 29 28 24 24 19 23 24 24 24 23 20 19 19
42 43 42 43 43 44 43 41 37 33 31 29 28 30 28 29 28 27 27 26 25 20 18 27 32 34 35 34 39 39 40 35 30 25 25 24 24 23 24 22 22 21 19 19
44 44 44 43 43 43 42 41 41 36 31 31 27 28 29 27 27 26 27 28 28 25 22 26 23 27 32 32 32 40 39 37 31 33 27 22 26 28 30 27 20 24 24 23
44 45 45 45 43 43 42 40 42 40 34 32 30 27 29 30 27 27 28 27 26 34 25 21 24 26 31 29 29 30 33 34 32 32 31 32 32 28 29 24 23 26 26 27
44 44 44 44 45 43 43 40 42 40 35 33 32 34 32 30 29 27 28 27 27 30 28 24 26 26 27 26 27 30 27 28 30 33 32 30 35 32 25 29 31 31 29 31
44 44 44 44 44 44 43 39 41 43 40 38 39 38 39 39 36 35 31 26 25 35 30 32 30 26 26 22 18 26 26 26 25 26 29 35 38 37 36 40 37 35 35 33
43 43 43 44 44 44 43 40 39 40 37 39 39 39 42 43 43 44 35 31 33 37 39 36 34 26 26 21 20 17 28 32 29 32 33 33 34 39 40 41 41 39 36 35
43 44 44 44 43 45 42 40 40 38 38 34 35 43 41 43 44 42 41 40 40 41 39 36 35 33 29 23 28 24 26 32 32 34 34 34 35 33 38 35 39 39 36 35
44 44 44 44 45 43 42 41 42 42 39 33 35 40 41 41 41 40 40 39 38 39 35 36 32 34 32 33 30 25 27 23 27 29 35 34 31 33 39 39 38 37 38 37
43 43 43 44 44 42 41 38 42 45 44 36 32 38 37 37 37 37 38 39 39 40 35 36 38 37 33 28 24 25 26 25 26 22 24 24 25 34 38 37 37 37 38 38
43 43 44 43 43 41 37 36 39 45 44 34 31 31 35 37 36 35 35 39 39 39 38 37 36 34 37 33 26 30 32 32 26 34 35 31 27 33 38 38 38 38 39 39
43 43 43 43 43 43 39 41 42 41 34 32 26 30 31 38 36 34 35 35 38 38 37 38 37 35 35 33 35 36 38 39 40 40 41 41 39 38 38 37 37 36 37 38
44 43 42 42 41 37 38 41 42 42 36 29 29 27 26 37 36 35 35 36 33 37 34 34 37 35 30 30 32 33 36 36 37 39 40 39 39 40 39 36 36 36 37 37
41 40 37 33 38 39 39 36 33 32 34 34 27 32 27 32 33 33 33 34 30 30 32 35 33 29 31 31 32 33 35 35 37 37 37 37 38 38 38 37 38 37 37 34
40 36 35 39 41 40 36 30 27 28 27 32 31 33 30 35 29 32 36 33 30 24 28 27 31 23 27 31 31 31 32 33 34 35 35 34 34 35 35 33 33 32 30 28
40 37 40 40 37 34 29 29 31 27 27 31 31 34 34 34 35 31 35 32 31 25 34 30 22 25 28 29 28 29 29 30 30 31 31 32 32 31 30 29 27 26 25 24
41 36 34 32 31 25 24 22 26 27 29 30 33 32 33 34 33 31 32 30 29 34 26 19 20 26 27 28 28 27 28 27 27 27 27 27 26 26 25 24 24 24 23 23
31 29 22 24 21 22 21 23 24 28 29 29 30 33 33 32 30 31 30 30 29 24 18 14 20 25 27 28 28 26 25 26 25 25 25 24 23 23 23 23 24 23 22 22
22 21 18 19 24 23 24 26 27 29 29 28 30 33 33 31 30 29 29 24 15 17 13 18 22 25 26 25 26 25 24 24 23 23 23 23 22 22 22 23 23 22 22 21
20 19 18 18 17 17 20 22 23 27 27 28 31 29 28 24 22 19 17 15 11 13 17 20 22 22 24 24 25 24 25 24 24 23 23 22 21 21 21 22 22 22 21 20
22 20 23 21 20 20 23 24 23 28 27 26 24 17 18 20 13 12 17 13 15 17 18 20 20 20 21 22 22 22 23 24 24 23 23 22 23 22 20 19 21 21 21 21

GFSNW_sfc_30mbdewp_069.txt.gz
Dewpoint
43 44 44 45 46 47 46 43 32 43 44 32 30 23 25 27 26 28 26 26 25 23 21 18 20 21 21 34 36 30 25 23 20 21 23 24 23 21 22 20 22 27 25 23
42 43 43 44 45 46 45 37 35 43 40 26 25 24 24 27 26 25 25 24 26 22 19 14 19 23 25 35 33 30 33 27 21 21 22 23 21 22 23 25 24 22 21 22
42 43 44 44 46 46 45 33 30 35 38 32 26 24 22 25 27 27 28 28 27 26 22 22 20 21 22 29 37 39 38 32 31 24 21 21 20 21 22 22 20 21 22 23
42 43 43 45 46 47 44 34 31 34 29 30 27 25 24 22 25 25 29 26 25 25 24 23 19 18 18 29 39 38 39 32 34 34 32 27 22 21 21 21 22 20 21 22
42 43 44 44 46 46 42 31 32 36 31 33 29 28 25 24 24 24 25 26 27 25 23 24 20 20 22 27 36 34 39 33 36 33 31 26 23 21 23 23 23 23 24 24
42 43 43 44 45 46 39 39 37 35 33 32 30 27 26 26 26 27 25 27 26 26 26 26 27 27 26 25 36 34 36 34 32 29 32 31 26 24 22 21 25 24 23 25
43 43 44 44 45 45 42 41 37 34 29 29 29 30 28 26 28 25 27 28 28 28 29 29 33 33 33 39 38 37 36 33 33 29 29 25 30 29 25 23 23 26 27 27
44 44 44 44 45 46 43 42 39 34 30 31 28 29 29 29 27 28 26 26 27 29 27 25 23 27 30 30 34 36 37 34 30 25 24 26 23 28 26 24 24 26 25 25
43 44 44 45 44 46 44 41 42 39 33 31 30 28 30 29 27 27 29 31 32 29 27 25 21 16 22 27 33 40 39 35 30 30 25 19 15 26 25 29 25 27 26 26
42 44 44 44 44 44 43 40 42 37 32 34 32 29 29 30 29 28 29 29 29 31 26 25 23 21 22 20 28 30 32 32 31 30 28 28 32 31 35 31 28 33 33 30
42 42 42 42 42 42 42 40 41 37 32 34 35 32 29 29 30 26 28 28 29 29 24 24 23 22 23 21 27 28 28 28 28 30 28 23 35 38 37 37 38 38 37 37
43 43 42 42 42 42 41 39 42 42 36 35 39 39 39 31 30 29 31 26 28 29 26 26 25 22 25 26 22 31 26 29 26 29 27 30 32 32 35 41 41 39 38 38
44 44 43 43 43 43 42 40 42 40 35 34 33 34 37 41 35 33 29 33 32 33 33 29 27 23 27 21 22 22 26 30 27 30 27 30 28 33 39 41 40 39 39 38
44 44 44 44 43 44 43 41 41 38 36 30 30 34 34 36 42 35 35 36 40 41 38 32 31 29 30 24 25 25 24 26 27 27 28 31 34 35 34 34 37 37 39 36
43 44 44 44 44 44 44 43 42 38 30 27 27 40 39 41 42 40 39 38 37 37 34 33 31 33 33 33 32 29 36 34 32 29 36 38 33 34 33 33 35 36 37 37
43 43 44 44 45 42 39 34 41 39 38 34 29 38 40 42 41 40 38 37 37 37 37 35 36 39 35 29 24 35 36 37 38 36 38 38 40 37 38 36 35 38 38 38
43 44 44 45 44 40 36 34 39 42 39 33 30 34 40 40 39 39 38 39 38 37 36 35 35 35 36 32 30 32 33 35 36 36 38 39 39 39 39 38 38 38 39 38
42 43 44 44 42 41 38 41 41 40 37 35 29 31 34 38 34 34 37 36 37 37 34 35 33 35 34 30 28 30 32 33 36 35 37 38 40 37 36 38 38 36 33 31
43 43 42 41 39 38 40 41 40 44 38 31 30 28 28 36 35 34 34 35 32 34 33 31 32 32 25 24 26 29 29 30 32 34 36 35 36 35 33 32 32 31 28 26
40 39 35 32 41 44 42 40 35 37 35 30 29 29 30 34 33 31 31 31 30 29 32 34 26 23 27 27 28 28 28 29 31 31 32 32 33 33 30 28 28 27 25 24
39 35 32 40 43 39 35 30 29 29 27 29 31 29 29 33 29 30 32 30 29 26 28 29 23 19 23 27 25 25 27 29 29 30 29 29 29 29 27 26 25 24 23 23
36 37 39 38 32 28 27 27 28 27 27 30 30 31 31 33 34 30 33 30 30 26 28 21 15 20 24 24 23 23 24 25 24 25 24 24 24 25 24 23 23 22 22 22
35 27 23 22 20 17 18 21 22 22 27 27 29 31 31 33 33 29 31 27 27 27 17 12 15 21 22 23 22 21 22 22 21 21 22 22 21 22 21 20 21 21 20 20
21 18 14 15 13 17 18 19 21 26 26 25 27 30 31 31 30 30 27 23 21 15 10 9 16 20 22 22 22 20 20 20 20 20 20 20 20 20 20 20 19 18 17 17
18 16 13 15 18 19 20 21 23 25 26 26 29 30 29 24 23 22 20 15 10 11 10 14 18 20 21 21 21 21 20 20 20 20 19 19 19 18 18 19 19 19 18 17
18 16 14 16 14 14 16 18 19 23 24 29 28 26 22 18 18 12 13 9 7 10 14 16 19 19 19 18 19 20 21 21 21 20 20 19 18 17 17 18 18 17 17 16
17 15 18 14 14 14 16 18 19 23 24 21 21 14 14 17 13 11 12 8 11 13 14 15 15 15 15 17 17 17 17 17 17 18 19 19 19 18 15 15 16 17 17 16

GFSNW_sfc_30mbdewp_072.txt.gz
Dewpoint
40 41 42 43 44 45 45 41 32 43 44 32 31 26 23 25 25 28 26 27 25 23 22 18 19 21 26 33 34 29 29 23 18 18 22 24 24 23 23 21 20 27 23 20
40 41 41 42 43 44 42 36 34 43 40 27 27 26 24 25 25 25 26 24 27 26 20 15 18 22 27 25 32 33 34 30 23 21 22 24 22 22 23 26 25 21 21 21
40 41 41 42 43 44 43 32 29 34 38 34 27 26 24 22 26 27 28 27 27 25 23 22 20 19 21 23 21 38 31 33 30 27 28 33 30 26 22 22 21 21 21 22
40 40 41 42 43 43 42 31 30 34 28 31 29 26 24 22 25 26 27 25 26 24 22 24 21 19 21 24 28 29 32 28 34 35 35 33 32 31 27 22 21 20 21 21
40 40 41 41 42 43 40 30 31 36 31 31 31 28 25 22 22 25 24 23 26 25 23 23 20 21 20 18 26 35 38 27 34 30 33 32 30 31 28 25 23 22 23 22
40 40 40 41 42 43 39 37 37 37 33 32 30 27 26 25 24 24 25 27 27 25 25 26 26 26 26 25 24 24 31 33 31 24 33 29 23 28 25 26 25 24 22 24
41 40 40 42 42 42 41 38 37 33 29 31 30 28 28 26 25 25 28 26 26 28 29 29 30 29 28 28 28 30 30 34 32 27 29 19 22 32 24 28 28 27 24 26
42 43 43 41 42 42 43 41 37 34 29 32 30 30 28 27 27 27 26 27 28 30 28 27 24 25 29 29 31 31 36 34 30 26 25 22 22 16 22 26 26 22 27 28
42 42 42 43 43 44 43 41 43 38 32 31 31 31 33 29 27 27 28 30 29 29 31 30 24 19 21 23 30 33 34 34 30 29 25 17 18 24 30 29 17 33 36 33
42 43 43 44 44 44 43 41 43 38 33 35 33 31 32 32 29 27 27 28 30 31 30 26 25 23 22 18 26 29 31 31 29 29 26 26 30 36 36 28 19 38 39 38
42 43 42 43 44 44 43 41 43 38 33 36 36 33 33 31 29 27 29 30 31 30 26 25 24 23 23 21 26 29 28 27 29 29 26 23 32 38 33 36 34 35 37 40
42 42 43 42 44 44 44 38 43 42 36 36 39 39 38 34 31 28 31 27 29 29 26 26 24 22 25 24 19 31 24 27 25 28 26 31 33 30 35 36 30 30 34 36
44 43 42 41 42 44 42 40 41 39 33 35 35 35 37 40 38 34 29 31 32 32 31 27 26 23 25 20 21 22 28 31 30 29 22 24 26 32 35 37 36 36 37 41
44 44 43 42 42 42 42 39 41 38 36 29 30 35 34 36 38 39 34 32 39 39 37 31 30 28 30 24 23 23 23 27 26 25 27 31 29 32 37 38 38 41 43 42
44 45 44 43 42 42 41 42 42 40 30 28 27 38 33 33 36 38 38 36 35 35 31 30 28 31 31 32 32 29 35 30 29 25 37 36 37 39 40 40 39 37 38 39
44 44 44 44 43 42 40 35 41 40 38 31 28 34 36 37 39 40 38 35 37 37 34 33 34 38 33 28 26 34 35 35 36 35 36 36 38 40 38 39 40 39 37 34
43 44 44 44 43 41 36 33 39 41 38 34 28 31 36 36 40 41 40 40 38 37 36 34 34 35 34 32 29 32 34 33 33 36 36 36 37 38 36 35 37 34 31 29
44 45 44 45 44 42 38 41 41 40 37 36 28 30 34 39 35 34 39 37 38 37 34 35 33 35 35 30 28 29 30 30 33 32 34 37 36 36 32 32 31 29 27 26
45 44 42 42 40 37 39 42 41 42 36 29 30 27 27 37 34 36 35 36 32 35 33 31 32 30 26 24 26 27 27 27 29 31 33 34 34 33 30 28 27 26 24 24
41 39 35 32 40 42 41 38 35 34 35 32 29 31 29 34 32 30 32 31 29 27 30 31 26 22 25 26 25 24 25 26 29 28 29 29 29 30 27 26 25 24 23 22
38 34 33 40 42 37 34 30 30 30 28 31 31 30 30 32 27 30 31 29 29 25 27 28 22 18 22 25 22 23 23 25 26 27 27 26 26 26 25 23 23 22 22 21
38 39 38 33 31 30 28 26 28 27 25 29 29 30 31 32 33 30 31 28 29 23 26 20 13 18 21 21 22 20 21 23 23 24 23 24 23 23 22 21 20 20 20 19
30 24 19 19 18 15 17 19 21 22 25 26 29 29 30 32 32 30 30 26 25 24 15 11 14 19 20 21 20 20 21 22 21 21 21 21 20 20 19 18 19 19 18 18
19 15 12 12 12 16 17 17 19 25 25 24 27 30 30 31 28 27 25 21 20 14 9 8 15 19 20 21 21 19 19 20 19 19 19 18 18 18 18 18 18 16 15 15
16 14 12 13 16 18 18 19 22 23 24 26 29 28 25 22 20 19 19 14 8 10 8 13 16 18 18 18 19 19 19 19 18 18 17 17 17 16 16 17 17 17 16 15
16 14 13 14 14 14 15 16 17 22 22 28 27 24 19 16 17 12 10 8 5 8 11 14 15 15 16 16 17 17 18 19 18 18 18 17 16 16 16 16 15 15 15 13
15 14 16 12 12 13 14 16 16 20 24 20 19 13 13 17 12 8 9 5 9 12 13 14 14 14 15 16 16 16 16 16 16 17 18 17 17 16 13 12 14 15 15 14

GFSNW_sfc_30mbdewp_075.txt.gz
Dewpoint
39 39 38 38 40 41 42 38 31 43 44 33 31 27 26 23 21 25 27 27 26 24 21 16 16 24 25 23 29 31 32 23 16 17 22 24 24 23 24 22 21 27 23 20
37 39 38 38 40 41 39 35 34 44 42 27 28 31 28 24 22 25 26 24 27 26 22 17 19 21 26 25 20 16 31 30 21 19 21 27 25 24 24 25 24 21 21 21
37 39 38 39 40 40 40 33 28 34 38 35 30 29 25 23 24 24 27 27 27 26 23 23 20 20 20 23 21 24 34 33 33 24 29 33 32 32 32 28 22 21 22 22
37 38 38 39 39 41 40 33 29 33 28 30 31 28 26 23 22 24 27 24 25 24 22 23 20 19 20 22 25 33 28 23 26 30 26 28 29 31 30 30 28 23 22 21
39 39 39 39 40 41 38 31 30 35 32 31 31 31 28 24 23 25 23 25 25 25 22 20 17 21 21 19 24 24 26 29 32 28 28 24 26 30 25 29 29 26 25 24
40 39 39 40 40 40 36 37 37 36 33 30 31 29 28 26 24 24 24 24 23 23 27 28 27 27 27 25 25 24 25 33 31 25 31 31 23 21 27 25 27 27 25 26
42 41 40 40 40 40 37 37 36 32 27 30 31 31 28 26 26 23 25 25 27 29 31 32 30 30 29 29 28 28 25 25 33 27 29 20 19 28 30 28 27 26 27 26
43 43 42 41 41 41 39 39 36 33 27 31 31 29 29 27 27 26 25 28 28 30 29 30 27 25 29 28 28 29 28 27 29 27 25 23 20 17 20 24 21 36 33 37
43 42 43 42 41 41 41 40 41 37 31 29 31 30 30 28 29 29 28 31 34 35 32 29 22 20 22 22 27 32 31 32 31 28 24 18 18 26 35 29 23 36 38 38
42 42 42 43 42 41 40 40 42 38 31 32 33 30 31 30 30 29 30 32 34 35 30 25 23 20 23 18 24 26 28 31 28 27 25 26 29 30 37 25 23 34 34 34
43 42 41 43 42 43 42 39 43 39 32 36 34 33 34 33 32 29 31 31 32 31 27 27 25 23 24 21 23 29 26 24 24 26 24 21 31 34 28 29 35 34 31 32
43 42 41 42 44 42 42 39 43 42 36 36 40 39 38 34 34 32 33 29 31 31 28 27 25 23 25 23 19 30 26 30 28 29 27 30 34 32 31 35 34 34 34 34
43 43 41 41 43 44 43 39 42 39 32 34 35 37 38 39 37 36 32 32 32 31 31 28 27 23 25 23 24 26 29 31 28 28 27 28 29 31 38 39 40 40 40 38
44 43 42 41 41 42 42 40 41 38 35 30 32 37 35 39 38 38 36 34 38 37 36 31 29 24 28 24 24 24 24 28 27 28 27 32 30 38 39 38 39 39 39 40
44 43 43 42 41 43 42 41 40 40 33 28 29 36 34 37 38 37 38 36 35 35 33 33 30 31 31 32 31 28 31 28 27 24 34 34 35 38 38 36 38 37 33 32
44 44 43 42 42 41 40 34 41 42 40 33 27 33 35 33 35 35 36 38 36 37 35 33 35 37 32 28 27 33 35 35 35 34 36 36 37 38 36 34 34 34 30 28
44 44 43 42 43 40 36 33 39 41 39 31 24 29 35 35 36 38 37 39 38 36 37 35 33 34 35 30 27 32 32 31 32 34 34 36 36 36 33 31 31 30 28 26
45 44 43 42 41 40 38 41 42 40 37 35 27 27 33 37 35 33 39 36 37 37 34 35 33 35 34 28 27 28 27 27 30 28 31 33 36 35 31 29 28 27 24 24
45 44 42 41 39 36 39 42 40 41 36 29 28 25 26 36 35 35 33 36 31 35 32 32 34 31 26 23 24 24 25 25 25 27 29 32 32 31 28 28 26 25 23 23
41 38 35 32 39 43 41 38 34 35 35 33 29 31 29 34 33 31 31 31 30 27 31 32 29 21 23 24 23 22 22 24 24 24 25 25 26 27 26 25 25 24 23 21
38 35 34 40 41 36 34 30 29 30 28 30 31 30 29 33 30 29 31 30 29 24 28 28 22 17 19 21 21 20 21 22 23 24 25 25 25 24 24 23 22 21 20 19
39 37 35 33 30 29 26 26 28 27 25 29 30 30 31 32 32 31 30 28 28 22 26 21 13 17 19 18 19 19 20 20 21 22 21 22 22 22 21 20 19 19 18 18
24 20 17 19 17 15 16 18 20 21 24 25 28 29 30 31 31 30 29 25 21 21 15 10 13 18 18 18 18 18 19 19 19 19 20 19 18 18 18 17 17 17 16 16
17 14 11 11 11 14 15 16 18 23 24 24 27 29 28 27 24 24 20 19 20 12 9 8 13 17 18 19 19 17 17 17 17 17 17 16 16 16 16 16 16 14 13 13
15 13 12 13 15 17 17 18 20 22 24 26 29 24 22 18 17 18 18 13 9 9 8 11 14 17 17 17 18 18 17 17 16 17 16 16 15 15 14 15 15 14 14 13
14 13 13 13 13 13 14 15 16 21 21 26 24 20 16 15 13 9 9 7 5 7 11 14 15 15 16 16 17 17 18 17 17 17 16 16 15 14 14 14 14 13 12 11
13 13 15 12 13 12 14 15 16 20 22 19 19 12 13 17 11 7 9 7 10 12 13 14 15 14 15 16 16 16 16 15 16 16 16 15 15 15 13 11 13 13 13 12

GFSNW_sfc_30mbdewp_081.txt.gz
Dewpoint
36 38 39 39 40 40 37 30 27 37 43 33 33 26 23 21 17 18 19 24 24 21 21 19 18 32 22 24 24 25 21 23 19 20 16 20 22 21 23 25 25 24 23 25
37 37 38 38 39 40 32 29 28 37 41 27 27 27 24 23 20 17 16 17 22 22 21 18 17 22 26 23 21 23 23 20 16 27 23 21 19 20 22 23 23 26 30 23
36 36 37 36 38 39 37 31 26 28 37 36 29 23 23 22 25 21 17 17 19 21 21 20 19 18 20 22 20 24 27 27 23 19 21 24 19 22 21 22 22 21 22 23
37 36 36 37 38 40 36 32 27 27 25 27 28 28 29 18 20 22 20 18 19 19 19 18 17 18 19 20 20 19 25 25 27 28 29 25 26 26 26 25 25 24 25 25
39 38 37 38 39 40 35 30 26 25 23 24 22 26 26 25 16 18 18 19 18 19 20 20 21 19 19 20 19 20 22 18 21 22 22 23 20 21 23 23 23 23 22 21
42 40 39 39 39 39 36 30 31 29 25 21 25 25 21 27 21 18 18 21 21 23 21 23 25 26 26 23 23 23 23 22 15 20 21 23 22 21 20 19 20 20 20 23
42 43 41 40 39 39 38 30 28 29 21 21 17 17 27 26 29 31 22 21 24 24 30 28 28 28 27 26 26 26 24 21 22 21 23 17 19 20 20 20 20 24 26 24
43 43 43 42 40 40 37 35 31 26 23 17 17 19 26 33 31 28 27 25 27 33 33 28 24 24 26 27 25 24 25 23 20 20 15 14 13 15 16 17 18 27 26 27
43 43 43 44 42 40 39 35 36 33 26 20 15 15 18 19 24 27 29 30 34 35 32 30 21 17 18 20 22 23 25 25 22 22 18 11 13 20 23 23 17 28 28 27
44 44 44 44 43 42 39 34 36 35 31 24 19 16 15 17 23 30 28 32 35 37 31 26 21 20 19 18 21 23 24 25 23 21 19 17 27 24 27 21 22 29 29 29
45 44 45 44 44 43 41 37 36 35 31 26 24 24 27 19 31 32 33 33 34 31 29 25 23 22 21 16 19 24 24 26 24 24 24 20 22 22 24 32 32 32 32 33
43 43 44 44 45 44 43 37 39 38 32 28 29 29 30 30 32 34 36 27 34 30 27 24 23 25 23 20 17 25 27 22 22 20 19 28 33 34 35 36 34 35 35 33
43 44 43 44 45 44 43 38 39 38 34 31 29 31 35 33 37 38 35 35 32 36 30 34 32 27 22 20 18 24 22 28 28 32 29 30 35 36 36 35 35 35 35 35
43 43 44 44 45 44 43 38 40 38 35 27 26 28 29 37 37 38 38 35 39 37 40 34 30 27 24 22 22 27 21 28 20 22 26 24 29 34 36 35 35 35 35 35
43 44 44 44 44 43 44 41 40 39 28 27 24 33 32 32 38 38 39 39 38 38 36 35 29 28 28 25 27 24 23 27 24 26 34 33 32 34 36 34 34 34 34 33
44 43 43 44 44 43 40 34 40 40 38 36 30 30 34 35 37 37 39 39 39 39 35 34 32 31 32 29 25 34 32 31 32 32 31 33 35 36 35 34 34 33 32 32
43 44 44 44 43 42 36 35 39 41 40 35 29 30 33 35 37 38 39 40 38 37 36 35 32 33 31 30 27 29 28 29 30 30 30 31 32 33 32 31 31 31 28 28
44 43 43 43 43 41 38 41 41 41 38 36 29 29 33 36 36 34 39 36 37 36 35 35 31 31 35 29 26 25 25 26 28 26 26 29 31 31 30 29 28 28 26 26
42 42 42 41 39 37 39 42 41 41 38 31 31 26 28 33 34 36 36 36 30 36 32 33 33 29 27 24 23 23 22 23 23 24 25 27 26 27 27 27 27 26 25 24
41 40 36 32 40 43 42 38 35 36 36 33 28 34 31 32 33 33 33 34 32 29 32 35 32 22 24 22 21 20 20 21 22 22 22 23 23 24 25 24 24 23 23 21
39 37 34 39 41 38 35 31 29 31 29 29 32 32 31 36 31 30 32 31 32 27 29 30 28 21 19 20 19 19 19 20 20 20 21 21 22 22 23 22 21 20 19 18
38 37 38 36 35 35 30 28 30 28 28 31 30 32 34 34 35 33 32 30 31 26 31 29 22 19 17 17 17 17 18 18 18 19 19 20 21 23 22 20 19 18 17 18
30 26 28 25 25 25 25 22 24 25 28 30 31 30 33 34 35 33 32 28 25 28 27 19 18 18 18 18 18 18 18 18 18 18 18 18 18 20 19 18 19 19 18 18
23 23 19 22 21 20 21 24 25 26 28 30 31 32 31 32 29 30 24 24 25 22 20 16 18 17 18 18 18 17 17 17 17 16 16 16 16 16 17 17 17 17 15 15
22 21 19 18 21 22 23 25 27 26 28 30 32 30 31 26 25 24 23 21 18 17 16 17 17 18 18 19 19 18 17 17 17 17 16 16 16 15 15 16 16 15 15 14
20 20 21 21 24 22 22 24 25 26 27 31 29 27 24 20 20 19 17 17 15 15 16 18 17 17 17 17 17 18 18 18 18 17 16 16 15 14 14 14 14 14 13 12
18 18 20 21 20 20 21 22 23 26 29 25 25 22 19 19 17 14 14 14 15 15 16 16 16 16 16 16 16 17 17 17 17 17 17 16 17 16 14 12 13 13 13 12

GFSNW_sfc_30mbdewp_087.txt.gz
Dewpoint
38 38 38 39 38 38 38 36 28 35 38 30 33 29 29 25 21 21 20 15 17 17 18 19 18 28 26 25 23 21 24 27 22 20 23 31 35 34 36 31 28 32 33 32
40 39 38 39 38 38 37 33 29 34 39 25 29 31 31 28 25 23 20 17 15 16 16 17 17 27 27 26 23 21 21 29 26 21 24 25 27 34 35 35 35 32 30 32
41 40 39 38 38 39 37 31 26 28 35 33 30 26 25 24 24 23 21 19 19 17 15 17 19 21 27 25 23 22 25 25 26 26 30 33 33 33 34 37 31 29 34 35
42 41 40 38 38 39 37 32 28 27 25 29 31 31 32 29 22 21 20 18 18 18 17 16 16 19 19 25 23 22 26 25 26 25 24 34 33 34 35 35 34 33 31 34
43 41 41 40 39 39 35 30 28 25 24 26 29 28 26 24 24 24 26 22 20 18 17 16 17 26 26 27 28 24 23 22 23 22 21 22 31 31 33 33 37 36 36 35
42 41 41 41 40 39 33 34 33 32 27 25 23 27 25 23 23 23 23 25 30 30 27 30 31 30 30 29 29 26 24 23 23 21 22 21 23 25 31 32 33 30 31 35
42 42 42 42 41 39 34 32 31 28 23 22 22 23 22 22 22 23 24 26 31 32 35 32 31 29 29 28 28 27 24 24 23 19 19 17 24 25 25 22 29 30 35 34
43 42 43 43 42 40 36 34 33 29 24 23 21 19 18 19 22 24 28 30 34 39 33 29 24 24 25 25 26 26 26 25 22 20 20 18 16 17 18 19 30 36 35 37
43 43 43 43 43 42 38 35 35 33 27 24 24 20 22 23 23 25 28 35 39 38 33 27 21 19 21 19 23 25 26 27 25 23 20 15 17 21 25 25 28 35 36 36
44 44 44 43 43 43 41 36 35 34 28 29 27 25 25 31 26 31 28 31 35 37 30 25 23 21 21 20 23 24 24 25 24 24 24 24 23 26 27 21 29 34 34 34
45 45 44 44 43 44 42 38 35 34 30 28 29 29 28 29 32 29 32 30 34 31 26 27 24 22 23 23 25 29 24 24 26 26 22 19 31 28 28 36 36 34 34 35
45 45 45 44 44 44 43 37 37 37 32 29 31 30 30 29 31 35 35 34 33 34 29 28 28 25 25 29 25 33 27 25 25 25 24 38 39 38 39 36 35 35 35 35
44 44 44 45 45 45 44 39 38 37 35 31 30 26 29 30 32 38 33 36 37 37 39 35 33 27 28 28 26 31 34 36 27 26 37 37 38 39 34 35 34 34 34 34
44 44 44 44 44 45 45 39 39 37 35 27 26 30 28 27 27 34 38 36 39 37 38 33 31 29 33 30 30 30 36 36 34 35 36 37 38 38 38 34 33 33 33 33
44 44 44 44 43 44 45 41 40 38 29 26 26 27 28 30 28 27 35 36 36 36 33 31 30 35 34 32 32 31 32 32 31 29 33 35 34 34 34 33 32 31 30 30
43 44 44 43 42 43 37 32 40 39 34 33 28 35 34 28 31 30 32 37 37 36 34 32 35 38 35 31 29 31 31 28 30 31 36 34 32 32 30 30 31 29 28 27
43 44 44 43 42 40 36 33 37 41 39 33 28 26 32 32 33 33 34 36 37 36 35 34 34 33 34 33 26 29 31 29 28 27 33 29 28 28 28 28 29 28 27 25
44 44 44 42 41 40 38 42 41 40 37 36 28 28 32 34 33 33 37 36 37 36 34 36 33 33 33 24 24 22 26 26 25 27 25 26 26 26 26 26 26 25 25 24
44 44 43 41 38 35 38 42 40 40 37 30 30 26 26 36 35 36 36 36 30 35 32 32 34 27 20 24 24 21 21 21 21 22 23 23 23 24 25 24 23 23 23 23
41 39 35 32 39 43 42 39 35 35 36 35 31 33 30 36 33 33 32 33 31 27 30 36 24 20 25 24 20 19 19 20 20 21 20 21 21 24 23 22 21 21 20 19
39 33 34 40 43 39 36 30 29 30 29 32 31 33 32 37 31 31 33 30 32 27 30 30 23 18 22 21 19 18 20 20 20 21 22 22 24 22 20 19 18 17 17 16
39 38 41 39 37 34 30 28 31 29 27 32 31 33 35 34 36 33 33 29 31 25 33 28 16 18 20 21 18 18 19 18 18 18 18 18 20 20 19 18 18 17 16 16
35 33 32 32 30 27 24 23 27 26 30 32 33 31 32 33 34 32 28 26 25 31 23 15 16 20 19 18 18 17 17 17 16 16 16 16 16 17 15 15 15 15 14 15
28 25 19 23 21 21 23 25 26 28 31 33 31 31 31 34 29 30 23 25 28 25 17 11 16 19 19 19 18 18 18 17 16 16 15 15 14 14 14 15 15 13 13 14
23 23 19 19 24 27 28 29 28 30 32 33 32 31 29 27 25 25 24 21 18 16 12 15 18 18 19 19 19 17 17 16 16 15 14 13 13 13 13 14 14 13 13 12
21 22 23 26 23 22 24 27 27 30 30 33 33 28 24 22 24 20 16 18 12 14 16 18 18 18 18 18 19 19 19 17 16 15 15 14 12 12 12 12 12 12 11 10
21 20 24 24 23 22 24 26 26 30 30 26 24 20 20 22 17 13 15 13 15 17 18 19 18 17 18 19 19 19 18 17 17 17 16 15 15 15 13 11 12 12 11 8

GFSNW_sfc_30mbdewp_090.txt.gz
Dewpoint
40 40 40 39 39 38 38 34 26 32 38 27 29 25 32 28 27 27 25 22 16 16 16 17 22 31 28 24 24 21 22 26 21 20 21 30 34 36 35 31 29 32 32 30
40 41 41 40 39 38 36 32 30 33 35 22 24 31 29 30 27 25 24 22 21 20 17 14 26 29 27 25 23 21 22 24 25 22 26 30 34 33 35 37 35 31 28 31
41 42 41 41 39 38 36 31 24 28 34 32 28 25 27 26 25 24 24 23 21 20 18 19 18 25 29 26 24 24 25 24 27 25 27 32 32 32 36 35 31 29 32 32
41 41 43 41 39 39 35 31 25 31 26 28 26 29 31 28 24 26 27 21 20 22 17 18 16 20 23 26 28 22 26 23 26 27 26 33 33 32 33 33 35 32 34 34
41 42 42 41 39 39 34 28 27 30 27 27 29 30 28 29 25 26 24 26 27 29 28 27 21 25 26 26 28 26 26 21 23 22 24 26 20 32 33 34 36 37 37 36
41 42 42 41 41 39 32 33 32 28 26 25 22 25 25 26 27 26 24 23 25 29 30 32 32 31 30 29 28 26 25 24 23 19 22 18 18 24 33 29 36 33 32 35
40 42 42 42 42 39 33 33 30 26 20 23 22 21 21 19 21 24 26 28 28 31 35 31 30 31 28 29 28 29 24 24 23 21 19 9 18 22 26 34 35 33 35 38
40 42 42 42 42 41 35 33 31 29 23 24 23 20 21 24 25 24 24 30 36 36 32 26 26 24 25 25 26 26 29 25 21 18 17 18 15 17 25 30 33 37 37 38
42 43 43 42 42 42 38 33 35 32 27 22 24 23 23 22 24 26 29 36 39 36 32 29 23 17 21 19 22 26 26 27 23 22 19 14 18 25 28 31 31 36 36 37
44 44 44 44 43 42 41 37 35 32 28 26 27 25 26 30 30 28 30 32 33 36 29 25 23 20 23 18 21 24 25 26 23 22 21 23 28 33 33 23 30 35 36 36
44 44 44 44 43 43 42 39 36 32 28 27 28 29 28 30 33 29 32 30 32 31 26 25 24 23 23 24 22 23 23 25 23 24 22 19 37 34 31 35 35 36 36 36
44 43 43 44 44 43 43 38 37 35 31 28 30 29 29 30 32 31 34 32 32 33 30 29 29 25 26 27 22 33 28 30 26 25 23 37 37 36 36 36 36 36 35 35
43 43 43 43 44 44 43 40 39 37 33 30 29 25 27 30 32 35 27 34 37 36 37 33 32 28 31 24 28 31 32 36 32 31 36 35 39 37 36 37 36 33 32 32
44 44 43 43 43 44 44 40 39 37 34 26 26 31 30 28 30 35 35 33 36 37 36 32 31 28 33 31 33 31 33 36 31 33 35 35 36 37 37 34 32 31 30 28
44 44 44 42 43 43 45 43 40 39 30 26 26 31 29 29 29 27 32 32 35 35 32 31 29 33 34 34 33 28 31 28 29 27 31 33 32 34 35 33 31 29 28 26
43 43 44 44 44 43 37 32 40 40 39 33 27 33 33 30 30 28 26 35 37 34 31 30 31 36 33 29 26 29 31 31 31 30 33 33 33 31 30 30 28 26 25 23
44 44 44 44 43 40 36 32 36 41 40 32 26 24 33 33 32 32 31 37 36 35 32 32 32 33 35 28 22 27 30 30 31 30 34 27 27 26 27 28 26 25 23 22
44 43 44 43 43 42 38 42 41 40 35 35 26 25 29 35 31 30 35 33 35 36 33 34 33 35 30 20 24 22 26 29 26 26 28 27 26 25 24 25 25 24 23 22
42 43 44 42 39 36 39 42 41 41 36 29 27 24 20 37 34 35 35 36 30 35 31 31 34 23 19 22 21 20 20 21 22 22 22 23 24 24 23 22 22 21 21 22
42 39 34 32 38 43 41 39 34 34 36 34 29 31 27 34 33 32 32 33 30 26 30 33 22 19 23 20 19 20 20 20 21 20 19 19 22 21 20 19 19 19 19 18
38 35 34 40 41 38 34 30 29 30 27 31 31 33 31 34 31 30 32 30 31 26 29 29 20 17 19 19 19 19 20 19 19 19 19 21 21 20 18 17 16 16 16 15
39 38 40 40 36 33 28 25 27 26 25 32 31 32 34 33 36 32 32 28 30 25 32 21 13 17 20 17 17 18 18 17 17 16 17 18 18 18 16 15 15 15 14 13
35 34 32 29 28 26 22 21 25 26 30 33 33 30 33 33 35 31 30 26 26 31 18 12 15 18 18 18 17 17 16 16 14 15 15 15 15 16 15 14 14 14 13 12
27 21 18 19 19 20 22 25 26 29 32 32 31 31 31 33 29 30 24 25 27 22 14 10 15 18 18 18 17 16 15 14 14 13 13 12 12 12 12 12 12 11 11 11
23 22 17 18 23 26 28 29 28 30 33 33 29 29 27 26 24 25 23 21 14 13 11 14 16 18 18 18 17 15 14 13 13 12 11 11 11 11 11 12 11 11 11 10
21 21 22 24 20 22 24 26 26 30 31 34 30 26 22 22 22 17 15 16 12 12 13 16 17 17 17 17 17 16 15 14 13 13 12 10 10 10 10 10 10 10 9 9
20 20 22 21 21 21 23 24 25 30 28 23 21 18 20 21 14 11 14 11 13 15 17 17 16 16 17 18 17 17 16 15 13 12 11 11 11 11 10 9 10 10 8 8

GFSNW_sfc_30mbdewp_093.txt.gz
Dewpoint
40 40 41 41 41 39 38 33 24 33 40 27 28 21 26 29 27 28 32 27 21 19 19 20 28 32 30 25 24 23 21 26 23 21 23 33 35 33 35 29 29 32 32 28
39 40 41 42 41 39 35 30 29 33 37 23 22 24 28 25 27 26 31 29 24 22 20 20 28 27 28 25 23 21 23 26 22 24 29 33 33 35 35 34 34 29 28 28
40 41 42 42 41 40 35 30 22 26 33 32 27 23 21 24 27 25 27 27 25 22 19 20 18 23 29 27 24 24 25 25 23 20 25 28 30 32 34 34 29 30 30 32
40 41 41 42 41 39 34 30 23 28 22 28 27 27 27 27 26 27 28 26 29 26 24 21 22 24 23 27 27 24 26 21 25 26 28 27 31 31 32 32 33 30 32 33
40 41 41 42 41 39 33 26 26 28 26 27 29 29 26 27 29 26 24 22 25 29 28 29 27 29 25 25 27 25 26 20 23 22 24 27 25 19 20 29 33 34 36 35
40 40 42 41 41 37 32 32 32 27 23 23 23 25 27 28 30 28 27 27 27 25 30 31 30 31 31 30 28 25 25 24 22 19 21 19 11 21 23 31 32 34 32 35
39 40 41 41 41 37 31 32 29 24 19 21 20 21 21 24 25 25 24 27 27 32 35 32 29 28 29 30 28 29 24 24 24 21 19 6 12 16 35 32 36 36 36 39
39 40 41 41 42 41 32 33 28 27 22 24 22 21 22 22 24 25 30 34 37 37 33 25 22 22 23 24 27 27 28 25 21 18 16 13 16 23 26 26 28 38 39 40
40 41 42 42 42 42 37 33 34 31 25 19 24 22 22 20 27 25 29 34 37 35 31 28 18 12 20 19 21 28 29 27 23 21 17 9 19 31 34 35 28 38 40 40
41 42 43 43 42 42 41 37 34 30 27 26 25 25 26 29 30 27 29 32 33 35 28 25 23 20 23 16 20 22 25 25 23 23 20 20 23 35 35 25 27 37 39 40
42 43 44 43 44 43 42 39 35 32 27 25 27 26 24 29 31 28 30 27 30 30 26 25 23 23 23 24 22 22 21 22 23 24 22 18 35 35 29 35 36 36 36 37
42 43 44 44 44 43 43 38 37 34 32 26 31 28 29 29 31 29 31 30 31 33 29 29 29 26 25 26 21 31 24 28 28 24 23 36 37 36 37 36 33 33 33 34
43 44 43 42 43 44 43 40 38 36 32 31 29 25 26 30 31 32 26 32 34 33 36 31 31 25 30 24 25 29 33 34 31 32 35 36 37 37 35 36 34 31 30 30
44 42 42 41 42 43 44 40 39 37 34 26 25 31 29 27 30 32 33 30 36 37 36 32 29 27 31 28 32 29 30 31 28 31 32 34 34 36 35 33 32 30 29 28
43 42 41 42 42 42 44 43 40 39 32 26 26 31 31 30 28 31 34 34 34 35 32 30 27 31 32 33 31 26 30 26 25 26 30 31 30 33 35 31 29 26 25 23
43 43 42 43 42 42 41 33 40 40 39 32 27 32 33 31 30 29 30 33 33 35 33 29 29 32 33 28 24 27 29 30 29 28 32 30 31 32 31 28 26 24 22 21
43 43 44 44 44 41 37 33 37 41 39 32 28 24 32 32 30 30 29 32 33 34 31 31 31 32 35 27 21 25 29 29 29 30 32 29 28 27 27 26 25 24 21 20
43 43 44 43 43 42 38 42 42 40 36 35 26 24 27 35 30 30 33 31 33 33 32 33 32 32 29 20 21 23 24 26 26 27 25 26 26 24 23 23 23 22 21 20
44 44 44 44 40 35 39 42 41 40 36 28 27 22 21 35 32 33 33 33 27 32 31 31 32 21 17 21 21 21 22 22 21 21 21 22 23 21 20 19 19 19 18 19
42 41 35 30 38 43 41 37 33 32 34 33 27 27 27 33 31 30 30 33 28 26 30 29 21 16 21 21 21 20 20 20 19 19 17 19 20 19 18 17 17 17 17 16
38 32 32 40 41 37 34 28 28 30 27 31 31 31 28 34 29 28 31 28 28 24 28 26 19 16 18 20 18 18 18 17 18 18 20 20 20 19 17 15 15 14 14 13
39 38 39 38 34 31 27 26 28 26 23 29 31 32 34 32 33 31 31 28 29 24 29 21 13 17 19 17 17 17 17 16 16 17 17 17 17 17 16 14 13 13 12 12
36 34 31 31 27 24 20 20 22 24 30 32 33 30 32 32 32 31 30 27 25 26 17 13 14 18 18 17 16 15 15 14 14 14 14 14 13 15 13 13 13 12 11 11
24 21 19 18 18 20 21 24 24 29 32 32 32 31 31 31 28 29 23 26 24 18 15 11 15 17 18 17 16 14 13 12 12 11 11 11 11 11 11 10 10 9 9 9
22 20 16 19 22 23 27 29 29 30 33 32 29 27 27 25 24 25 23 20 15 13 11 12 16 17 16 15 14 13 12 11 10 10 10 9 9 9 9 10 10 9 9 8
21 20 21 23 21 23 25 26 27 30 32 31 27 24 21 21 20 16 16 17 14 11 12 15 17 17 16 16 14 13 12 11 11 10 10 9 9 9 9 9 9 8 8 8
19 20 21 19 20 21 22 24 25 28 25 22 20 18 19 17 13 12 13 11 11 14 15 15 15 15 15 15 15 14 13 12 11 10 10 10 10 10 10 8 9 8 8 8

GFSNW_sfc_30mbdewp_099.txt.gz
Dewpoint
38 40 40 41 42 40 35 30 17 31 38 25 26 21 20 22 19 19 18 31 29 27 29 30 31 29 29 31 25 23 28 25 24 26 30 32 32 31 30 25 27 28 28 22
38 40 41 42 41 37 32 27 27 32 37 20 22 24 24 23 19 21 23 26 29 29 28 27 32 32 34 33 24 26 29 26 26 28 29 30 30 33 33 33 33 27 24 22
38 39 40 42 41 39 33 26 17 22 33 31 25 23 22 21 25 23 28 30 30 30 30 32 30 31 32 32 30 29 28 26 21 20 23 27 26 30 31 31 28 26 27 26
36 38 40 42 42 39 31 27 21 26 18 22 25 26 26 25 25 28 32 30 31 30 27 28 28 31 30 30 29 27 25 21 23 24 24 28 26 25 25 22 25 25 23 25
35 38 39 41 41 38 29 23 22 27 26 25 23 24 21 20 24 28 29 28 29 30 29 30 28 30 29 28 26 26 26 22 23 19 22 25 21 21 17 20 24 25 24 23
36 38 39 41 41 35 29 30 31 26 22 20 19 21 20 21 25 24 31 31 29 28 32 34 34 32 31 30 28 24 24 23 19 13 22 20 11 16 16 27 31 31 28 31
34 37 40 41 41 35 31 31 29 24 17 20 18 19 21 20 22 19 28 33 31 33 36 35 33 30 28 28 28 29 25 23 23 18 19 3 11 18 24 23 27 34 36 38
36 36 40 40 41 38 32 32 28 25 20 22 20 21 21 22 19 25 27 32 34 36 33 25 17 19 20 24 29 29 28 25 22 17 16 15 18 30 27 27 21 36 39 39
36 36 40 41 41 42 37 34 34 31 25 19 23 24 24 21 24 26 27 31 34 33 28 25 17 16 19 17 22 29 28 27 22 22 16 10 20 30 34 34 22 35 38 40
34 36 39 39 41 41 40 37 35 34 27 26 25 23 23 27 27 25 27 28 31 32 26 23 22 20 23 18 19 22 24 26 23 23 18 20 31 33 34 12 23 35 36 37
34 35 37 39 41 41 41 38 37 35 28 26 26 25 21 22 27 24 27 25 28 30 25 25 25 24 25 24 25 26 23 22 23 22 20 17 34 32 28 32 33 34 33 33
34 36 37 40 41 42 43 38 37 38 32 30 32 30 28 26 28 29 27 28 30 31 26 26 27 25 27 25 21 29 25 29 26 27 27 34 35 33 34 33 31 31 31 31
35 36 38 40 42 42 43 39 37 36 32 32 32 30 31 32 30 30 25 29 33 32 35 29 28 26 29 24 25 28 30 29 28 27 29 28 31 31 31 30 28 28 29 30
35 36 39 41 43 43 44 38 39 36 34 27 26 31 29 30 31 30 29 29 35 36 35 30 28 25 30 26 29 28 27 27 25 28 28 30 29 29 30 28 29 27 25 25
35 38 40 42 43 44 44 40 39 39 33 25 26 31 33 31 30 30 31 30 29 30 30 30 26 28 29 32 29 24 27 24 23 23 27 27 26 29 29 26 24 24 22 20
35 38 42 44 44 43 41 33 39 40 39 32 25 30 31 30 30 30 30 31 32 32 32 29 31 30 30 27 23 27 28 28 28 26 30 28 27 28 28 25 22 19 18 18
35 38 42 44 44 42 37 33 35 41 40 32 27 25 30 30 30 30 31 33 33 33 32 30 30 31 33 27 23 26 28 27 27 27 29 26 24 22 23 23 20 18 17 16
36 40 42 42 44 43 39 41 42 41 35 34 27 24 26 32 28 27 31 29 29 31 29 32 31 31 29 24 22 23 23 25 24 25 27 24 23 19 18 19 18 18 16 15
38 41 41 41 40 37 38 42 42 40 35 29 27 21 20 32 30 31 32 30 24 28 28 29 31 26 23 22 21 20 19 18 17 20 23 20 18 16 16 15 15 15 15 15
39 40 36 31 34 43 41 37 33 33 33 32 25 25 26 31 29 29 28 29 24 21 25 30 26 21 21 20 19 18 17 17 17 19 16 18 17 16 15 14 14 14 13 13
38 32 31 35 40 37 33 28 28 29 26 30 27 27 27 33 26 27 28 25 23 20 24 25 21 18 18 19 18 17 16 16 17 17 17 17 16 15 13 12 12 12 11 11
34 37 39 38 33 31 27 25 27 25 23 28 27 27 29 32 34 28 28 24 24 18 29 24 18 16 18 17 16 15 15 15 15 16 15 15 14 13 12 11 11 11 10 9
39 35 32 30 28 24 21 19 22 22 26 28 30 28 30 31 32 31 28 22 22 27 22 20 15 17 17 16 15 14 14 14 13 13 13 12 12 12 11 11 10 9 8 8
31 28 22 23 22 21 19 21 21 24 28 30 29 30 29 30 28 29 25 24 25 20 18 16 15 17 18 16 14 13 12 12 11 11 11 10 9 9 8 7 7 6 5 4
25 21 18 18 19 22 26 29 30 32 32 31 29 28 28 27 26 24 23 21 19 19 17 12 16 17 16 14 13 11 10 9 9 9 8 8 8 8 8 7 7 6 5 5
19 19 19 21 22 24 26 29 28 31 30 28 28 25 25 23 22 21 20 19 17 14 12 15 17 15 14 13 12 10 10 10 9 9 9 8 8 8 8 7 7 6 5 4
18 18 19 18 22 22 23 25 26 28 29 25 21 19 19 18 16 17 16 17 12 12 14 16 14 13 12 11 11 10 10 9 9 9 9 8 8 8 9 8 8 8 8 7

GFSNW_sfc_30mbdewp_105.txt.gz
Dewpoint
37 39 40 42 42 40 37 28 24 31 36 30 22 17 17 20 20 22 22 24 27 27 29 27 28 25 9 16 16 15 19 22 24 28 21 23 22 22 24 20 22 22 24 24
37 39 40 42 41 40 32 23 19 30 35 20 18 17 18 18 21 21 25 29 32 32 29 25 29 31 29 25 21 20 21 23 23 29 25 29 27 25 28 31 29 25 21 26
37 39 39 41 42 41 34 30 25 21 25 26 21 19 17 18 24 26 27 31 33 32 30 31 29 33 33 31 29 31 28 25 23 20 19 24 25 27 27 26 25 24 21 19
35 37 39 40 42 41 34 32 24 22 22 22 22 20 17 17 22 25 27 31 25 29 27 27 29 32 32 30 33 30 28 26 29 27 25 25 25 26 25 25 22 19 21 25
33 35 39 40 42 40 32 29 23 22 17 20 20 22 17 15 18 25 24 23 24 23 22 26 27 30 30 32 33 31 29 17 17 17 19 21 20 17 12 11 15 20 20 32
33 35 38 39 42 40 29 27 27 23 18 13 14 19 15 14 16 20 19 24 24 21 26 30 31 30 30 28 27 30 28 19 17 15 12 11 10 14 16 16 30 31 31 36
34 35 38 39 41 41 33 28 26 22 19 13 14 14 14 14 13 14 19 24 24 25 31 30 26 28 26 25 25 25 18 18 13 11 13 6 19 21 20 27 29 31 34 36
33 33 37 38 41 42 36 31 29 24 21 15 14 17 16 17 17 18 20 24 26 32 30 24 16 18 21 18 22 22 23 18 15 10 8 15 24 24 24 23 30 30 32 35
33 35 37 38 40 42 38 33 35 31 26 18 19 19 17 17 18 19 20 25 30 31 26 22 13 13 16 13 17 20 21 21 16 15 8 16 28 28 27 26 26 32 32 32
34 34 37 37 40 41 40 39 38 34 30 24 24 21 21 20 19 18 20 24 28 29 26 22 16 15 16 14 13 16 18 20 18 17 14 25 30 31 30 26 24 33 32 31
35 34 37 38 39 40 41 38 38 35 32 27 27 27 25 23 22 20 21 25 26 27 23 22 22 22 21 22 20 22 22 25 21 20 17 22 30 29 27 29 31 32 32 31
36 33 35 36 38 40 42 38 39 38 35 29 35 34 33 31 29 27 23 25 28 28 27 26 26 25 23 22 26 25 25 26 26 26 24 29 31 29 31 31 30 31 32 31
36 33 34 35 38 39 40 40 39 38 34 33 30 28 32 33 34 31 25 24 29 31 31 31 27 28 24 21 23 24 29 27 28 28 28 28 29 29 30 29 29 29 29 29
36 33 33 34 37 40 39 39 40 38 35 30 28 29 30 33 32 32 31 30 31 31 27 30 26 24 24 23 25 26 26 27 28 28 28 28 27 28 29 28 27 26 25 24
35 33 34 36 38 40 40 41 41 40 34 31 30 30 31 33 32 31 32 30 27 24 24 27 27 25 24 26 26 28 26 26 26 26 29 28 27 27 27 26 25 23 21 20
34 32 34 37 38 41 40 34 41 41 41 33 28 32 31 32 33 30 30 29 27 24 25 26 27 26 26 26 25 28 27 28 29 28 29 29 29 27 27 25 22 19 18 18
32 32 35 37 40 42 37 35 39 42 40 33 29 26 32 31 31 30 29 29 28 28 29 26 24 27 28 27 23 28 28 27 28 29 29 27 28 24 25 23 20 18 17 16
32 33 35 38 42 43 38 41 42 41 37 36 28 26 28 31 29 29 29 28 28 27 26 28 25 29 27 24 28 26 27 26 26 27 27 26 26 23 20 18 18 17 16 16
32 34 38 40 38 34 39 42 42 41 37 31 29 25 26 31 32 32 30 30 28 27 28 27 25 24 25 28 25 24 25 24 23 24 24 23 20 17 16 16 16 16 16 15
33 37 34 30 35 42 41 38 34 34 34 35 28 27 29 30 30 29 29 29 27 25 25 28 25 22 27 25 24 22 20 18 19 20 19 19 17 16 15 15 15 15 15 14
33 32 31 40 43 39 35 30 29 30 28 30 29 27 28 31 27 27 28 26 25 20 24 23 23 21 24 22 20 19 18 18 18 18 18 17 18 16 15 14 14 13 13 13
36 37 39 38 34 32 28 27 28 25 21 27 28 28 29 31 31 28 28 26 24 20 27 24 19 22 21 20 18 17 17 16 16 16 16 15 15 14 14 14 14 13 13 12
38 35 33 30 30 26 23 21 22 23 27 29 28 28 32 31 32 30 27 24 23 28 25 21 24 21 20 18 17 16 16 15 15 15 14 14 13 13 13 13 13 12 12 12
31 28 25 26 25 26 23 19 22 29 31 30 30 29 28 32 29 30 26 28 27 22 20 21 22 20 19 18 16 15 15 15 15 15 15 14 14 13 13 12 12 11 9 8
28 29 24 26 30 32 33 34 33 32 33 33 30 29 30 29 28 28 27 25 21 21 22 25 23 21 19 18 18 17 16 15 16 15 13 12 12 12 12 12 12 10 9 8
29 27 26 29 29 28 30 32 32 34 34 33 28 29 27 27 27 25 23 22 21 27 26 23 21 20 19 18 17 16 15 16 15 14 13 13 12 13 13 12 11 10 9 9
25 25 27 29 32 30 30 33 33 35 33 30 28 26 24 27 24 23 25 26 26 24 23 22 21 19 18 17 16 16 15 15 15 15 14 14 14 13 13 14 12 13 11 10

GFSNW_sfc_30mbdewp_108.txt.gz
Dewpoint
38 39 40 41 42 40 39 31 25 31 37 32 29 16 16 18 19 22 24 28 31 29 30 28 28 28 29 9 30 31 30 32 26 26 25 26 34 33 31 25 18 24 30 30
37 38 40 41 42 40 37 27 21 31 36 25 19 17 18 19 22 24 24 28 31 33 30 26 30 30 35 32 29 31 30 29 26 28 28 28 29 25 25 30 31 24 22 30
36 38 39 41 42 42 37 31 27 25 25 25 22 18 20 18 23 23 24 26 31 29 28 29 29 31 33 32 33 35 32 28 25 27 27 26 27 28 27 24 23 22 26 33
36 37 39 40 41 42 37 35 29 22 23 23 21 21 20 17 18 22 25 23 22 24 24 27 29 32 32 30 33 33 34 31 32 34 30 24 28 26 25 25 20 20 29 32
35 35 38 39 41 42 36 24 29 20 16 17 19 22 16 16 16 20 19 20 22 23 20 26 28 31 30 28 31 31 31 27 26 29 31 30 31 17 13 26 30 32 36 32
33 34 38 39 41 42 34 26 25 25 20 12 14 18 14 13 15 16 17 22 22 21 23 29 30 29 28 27 30 30 29 22 22 14 14 18 17 19 28 27 30 31 29 33
33 35 37 39 41 42 38 34 28 23 22 12 12 14 15 14 15 16 17 21 22 23 29 30 26 26 23 22 23 29 27 20 19 14 14 20 27 29 29 29 29 30 33 34
35 34 37 38 40 41 39 36 31 28 23 17 13 15 15 16 17 18 18 22 25 30 30 25 23 20 22 18 19 20 24 22 16 12 14 23 26 29 29 30 29 31 31 31
35 34 37 37 40 41 39 38 36 31 26 27 19 17 19 17 17 19 19 24 28 30 26 26 17 13 15 17 24 19 20 23 19 17 12 19 26 27 30 29 24 32 30 30
35 35 37 38 40 41 38 38 40 33 29 26 25 23 22 21 19 20 21 22 26 29 28 23 19 20 19 20 18 19 23 25 22 18 21 25 27 29 30 24 23 32 32 31
36 35 36 38 40 41 41 38 39 34 32 28 29 28 25 26 24 23 22 23 27 27 24 21 21 21 20 27 23 23 23 26 22 25 23 20 28 27 24 28 32 33 32 31
37 36 36 37 38 39 41 39 39 38 35 31 35 33 33 31 30 29 25 22 27 29 27 26 26 26 25 22 26 26 24 27 24 25 24 30 30 30 31 31 30 30 30 30
37 35 34 35 37 39 40 40 40 38 34 33 32 31 32 32 33 33 27 31 31 31 31 30 28 27 22 21 27 26 28 27 28 28 28 28 29 29 28 29 28 27 26 26
37 35 34 34 36 37 39 39 41 39 36 29 29 29 29 33 32 32 33 31 30 29 28 28 25 26 24 22 26 26 26 27 28 27 28 27 27 28 27 27 26 24 23 21
36 35 33 33 36 38 38 40 41 40 35 31 30 30 31 32 32 30 31 30 27 24 22 26 26 27 25 25 27 27 27 26 26 25 31 28 27 27 27 26 23 21 20 19
36 34 34 35 38 39 38 34 41 42 40 32 28 34 33 32 32 30 30 29 27 24 22 24 26 29 27 25 26 27 27 29 30 29 30 30 28 27 26 22 20 18 18 17
36 34 33 36 38 38 36 35 40 42 41 33 28 27 31 30 29 29 29 28 27 29 28 25 25 26 28 27 23 28 28 28 28 30 29 27 27 25 24 22 20 18 17 17
34 32 34 37 40 40 37 39 42 42 37 36 28 27 30 30 29 29 30 29 28 27 28 27 24 25 28 23 28 27 27 27 27 27 27 27 25 24 20 18 18 17 17 16
33 33 35 38 37 34 38 42 43 42 38 30 28 25 26 30 32 32 30 29 27 27 28 26 25 24 24 29 26 25 25 24 25 24 24 22 19 16 16 16 17 17 16 15
33 35 35 31 35 42 41 39 34 35 35 34 28 28 29 30 29 28 27 29 27 25 26 27 26 22 28 27 25 24 24 21 23 22 20 19 18 17 16 16 16 15 15 14
33 32 31 39 42 38 34 29 29 30 28 29 29 27 29 30 28 28 29 27 25 20 23 24 22 21 25 23 21 20 20 19 19 19 19 19 19 17 15 15 14 14 13 13
32 37 39 39 35 32 28 27 30 25 21 28 27 28 28 31 32 28 29 26 25 19 28 25 20 24 24 22 20 19 18 18 17 17 17 16 16 15 15 14 14 14 13 13
36 34 31 30 31 25 24 21 23 23 29 30 30 30 33 32 32 29 26 23 22 27 25 21 25 23 21 20 19 18 18 17 16 15 15 15 15 15 14 14 14 13 12 12
30 28 24 26 25 25 23 21 23 30 34 32 32 30 28 32 28 30 23 25 27 22 19 21 24 22 21 19 18 16 17 18 17 17 17 16 15 13 13 13 13 11 9 8
28 30 24 25 30 33 35 36 32 35 35 33 31 30 29 28 25 26 24 24 20 20 22 27 25 23 20 19 19 18 18 18 17 16 14 13 13 13 13 13 13 11 10 9
29 28 26 31 29 29 31 33 34 35 35 33 30 29 27 25 25 24 22 20 19 28 27 26 24 22 21 20 19 18 18 17 17 15 14 14 13 14 14 13 12 11 10 10
27 25 28 29 30 31 31 32 35 36 34 29 28 25 23 25 23 22 24 26 28 26 25 24 23 22 21 19 18 18 18 17 16 16 15 15 16 14 13 13 13 13 13 10

GFSNW_sfc_30mbdewp_114.txt.gz
Dewpoint
38 39 41 41 42 41 39 36 30 35 39 30 30 22 18 20 23 25 24 26 28 28 28 25 26 27 32 34 36 33 34 31 24 31 36 36 34 28 28 18 23 28 27 23
37 39 40 42 42 41 38 34 30 34 37 23 22 23 22 23 22 23 23 24 28 27 28 23 25 28 32 34 32 33 35 31 25 28 32 35 32 32 29 34 32 29 25 23
38 39 40 41 42 42 37 33 26 29 32 27 23 22 21 20 21 21 22 23 25 24 23 29 25 28 31 32 33 34 37 30 28 23 26 32 32 30 33 33 27 25 25 25
36 38 39 40 41 42 37 30 28 26 23 24 20 22 22 17 15 19 21 22 23 22 21 22 25 29 29 32 31 32 33 28 30 32 33 33 31 32 33 32 31 25 25 23
35 38 39 40 41 42 36 23 28 22 20 25 18 23 22 14 15 18 15 19 23 21 22 23 24 26 28 30 31 30 31 27 31 29 32 31 28 30 31 31 30 28 26 23
37 36 38 39 41 41 37 36 33 26 25 18 17 23 17 15 19 18 20 23 21 21 23 26 27 28 29 30 30 30 27 27 28 24 30 28 21 27 28 28 30 30 25 27
36 35 38 40 41 41 40 37 35 27 21 22 17 18 15 17 20 22 23 24 23 25 29 31 31 30 30 30 30 32 27 27 25 25 26 15 26 32 29 27 29 30 29 28
35 36 38 39 40 41 39 38 34 30 24 26 23 24 24 21 22 22 23 23 26 30 30 28 24 21 21 25 27 28 29 29 24 24 23 25 23 26 26 26 25 30 28 30
37 38 38 39 40 40 39 39 39 32 27 27 29 24 24 23 24 23 25 26 29 30 29 27 21 20 21 23 25 28 28 28 28 26 19 16 23 26 28 29 20 30 29 27
38 37 38 39 40 41 39 38 39 32 27 32 30 27 25 26 26 25 26 26 28 30 25 22 22 22 27 24 24 25 25 27 22 24 21 23 26 28 30 20 21 30 30 27
37 38 38 40 40 41 39 38 39 34 29 29 34 33 29 29 28 25 27 24 27 27 25 23 23 25 26 27 27 27 25 24 21 21 16 15 29 26 24 27 30 31 31 29
38 39 39 40 41 41 40 37 40 38 31 29 36 33 32 33 32 30 30 31 31 31 25 25 24 25 27 25 23 29 23 24 23 24 22 29 30 29 32 31 28 24 25 28
39 38 39 39 40 41 40 39 39 34 31 29 32 32 34 36 34 34 29 32 32 29 31 29 28 26 29 24 27 26 28 30 24 24 28 28 29 30 27 25 25 22 22 23
38 38 38 39 40 41 39 36 39 35 33 27 30 34 32 34 35 35 33 32 32 30 30 27 24 23 29 27 27 26 27 28 26 26 27 28 30 30 25 22 21 19 19 20
38 38 37 38 38 40 40 39 39 38 34 28 29 32 33 33 32 31 32 32 30 27 25 24 23 28 28 29 28 26 27 27 26 23 28 27 28 28 23 20 19 19 18 18
38 37 35 35 37 38 36 29 37 40 37 30 25 32 33 33 32 31 31 31 30 29 27 25 26 31 25 23 24 28 28 30 30 28 30 29 28 26 21 19 18 18 17 17
37 36 35 35 37 37 33 29 39 41 39 32 26 27 32 31 28 31 29 29 29 28 29 27 25 26 29 25 24 28 28 29 29 29 28 27 28 25 22 19 18 18 17 17
37 36 36 37 39 35 30 38 43 41 35 34 26 25 29 31 27 26 31 28 30 28 27 29 26 27 28 25 28 27 28 29 28 27 27 25 20 19 19 18 17 17 16 16
36 35 38 34 34 31 32 39 42 42 36 27 26 22 25 31 30 31 28 30 23 28 25 26 26 25 25 28 28 26 26 26 26 26 24 19 18 18 17 17 16 15 15 14
36 34 32 29 33 39 41 38 35 33 35 34 27 27 25 28 29 26 24 27 25 24 25 28 25 26 27 30 28 27 27 27 25 23 21 17 17 17 17 16 16 15 14 13
33 31 31 35 39 37 34 29 29 29 27 30 28 28 27 31 24 24 27 26 25 22 22 23 23 24 21 22 22 22 22 23 22 23 21 18 17 17 16 15 15 14 13 12
32 34 38 39 34 31 28 26 28 26 22 27 27 29 30 30 32 27 28 25 25 20 26 25 21 23 21 20 19 19 19 19 19 19 19 18 17 16 15 15 14 13 13 12
36 33 31 29 29 23 21 20 24 24 26 28 28 29 30 32 29 26 25 21 20 25 23 20 22 23 21 20 19 19 19 18 17 17 17 17 16 16 15 14 13 12 10 8
27 26 22 23 22 23 22 23 22 25 28 29 30 29 29 30 27 26 21 20 25 19 18 19 23 22 20 19 18 17 17 17 16 16 15 15 14 13 12 11 7 5 5 4
26 27 21 23 24 26 30 31 32 33 31 30 27 27 25 25 22 23 20 21 19 19 18 23 23 22 19 18 17 16 15 14 13 12 12 11 10 9 9 7 5 4 3 3
27 25 23 28 26 25 28 30 32 32 29 28 26 25 20 20 21 21 18 16 17 19 26 23 21 19 18 17 17 15 14 13 12 11 10 10 10 10 9 8 8 7 5 5
24 23 28 28 27 29 29 31 32 35 27 23 27 21 19 23 23 19 20 20 23 27 24 22 20 18 17 16 16 15 14 12 11 11 12 11 11 11 11 9 8 8 8 7

GFSNW_sfc_30mbdewp_117.txt.gz
Dewpoint
41 41 40 41 42 42 37 36 29 36 39 28 29 20 21 19 24 24 25 25 27 26 26 25 24 26 28 32 32 31 35 32 26 28 34 36 34 27 25 16 17 26 23 21
39 40 41 42 42 41 38 32 29 35 36 24 24 22 23 23 21 23 23 23 28 28 26 22 25 26 30 31 31 31 34 31 24 22 29 32 31 31 33 32 31 26 22 21
39 41 41 42 42 41 37 32 20 28 32 28 22 21 21 19 21 20 23 22 24 23 21 28 25 26 28 30 32 35 37 32 28 23 27 31 30 30 33 29 24 23 23 22
40 40 41 42 42 41 36 30 25 26 23 24 21 23 21 16 14 18 21 22 22 22 19 21 24 25 27 28 32 31 34 29 29 29 30 30 30 33 32 29 29 23 23 21
38 40 40 41 42 41 35 28 26 22 25 24 19 22 21 14 15 17 15 19 22 22 19 20 21 24 25 27 30 30 30 29 31 27 27 25 25 28 30 28 26 25 22 21
38 39 40 41 41 40 36 35 33 24 24 21 18 23 18 14 18 20 23 23 23 22 22 25 26 26 27 28 28 30 29 28 28 24 27 25 18 25 26 26 29 29 21 24
37 37 40 41 41 41 38 37 33 24 22 20 17 21 17 19 21 21 22 24 23 24 28 31 31 30 30 30 29 31 30 28 26 26 26 14 24 29 29 26 27 29 26 26
36 37 40 41 41 41 38 38 33 28 24 26 25 23 22 22 23 22 24 23 25 29 30 27 23 21 22 25 27 26 29 30 28 23 20 24 24 25 25 25 23 28 27 27
38 38 39 40 41 41 39 38 37 31 25 26 30 23 24 22 23 21 24 27 30 30 25 24 21 21 24 24 24 28 28 28 28 26 19 16 22 26 31 28 19 29 27 26
39 38 39 40 40 41 38 38 38 31 28 31 29 25 23 26 26 24 25 26 28 29 23 22 22 22 27 23 23 25 24 25 22 23 20 22 25 28 33 21 20 30 27 25
38 38 40 41 41 41 38 38 39 31 28 28 34 33 28 28 27 21 25 22 26 26 23 22 23 25 26 27 27 27 23 22 20 21 16 16 28 26 23 27 30 31 30 27
39 39 41 42 42 41 39 36 39 36 28 27 35 34 32 32 31 29 29 29 30 30 23 23 25 24 27 25 22 28 22 23 22 23 21 27 30 29 31 29 23 23 28 27
40 40 40 40 41 41 40 37 38 33 28 28 31 32 35 35 33 33 28 31 32 28 30 27 28 24 28 24 26 27 29 29 23 24 27 27 28 25 24 23 22 23 24 22
39 40 40 41 41 40 37 36 38 33 31 27 30 34 33 35 35 34 33 32 31 30 30 26 25 23 29 27 27 25 27 27 25 25 27 28 29 24 23 21 20 20 21 20
39 39 39 40 41 40 38 38 38 37 30 25 28 32 35 33 33 33 33 32 30 27 24 23 22 28 28 29 27 25 27 27 25 22 27 26 27 24 21 19 19 19 18 18
38 38 38 39 40 38 32 27 35 39 35 28 25 31 32 33 32 31 31 31 30 28 27 25 26 29 26 23 23 27 28 30 31 29 31 29 27 22 20 19 18 18 18 18
38 37 36 37 39 36 31 28 39 40 37 29 25 27 32 32 29 30 29 30 29 28 28 27 26 26 28 24 23 27 29 29 29 29 27 26 25 20 19 19 19 18 17 17
37 37 36 37 37 34 32 38 42 41 33 33 25 24 28 30 27 25 31 28 29 27 27 28 27 26 27 24 27 28 29 29 28 28 27 24 21 19 18 18 17 16 16 16
37 38 37 33 32 29 34 40 41 40 34 26 26 23 24 31 30 30 28 30 22 27 25 26 26 24 24 27 27 27 29 27 27 22 20 20 18 18 17 17 16 15 15 15
38 33 29 26 31 37 40 36 33 31 34 32 26 27 25 27 28 26 24 26 24 23 25 27 24 24 27 28 29 27 28 27 25 21 18 18 17 17 16 16 16 15 14 13
32 29 30 35 40 37 34 29 27 29 27 29 26 27 27 30 25 23 25 25 25 21 22 24 22 23 23 25 26 27 27 26 25 23 19 18 18 17 16 15 15 14 13 12
31 35 38 38 34 31 26 24 27 26 23 27 26 28 29 30 31 26 27 25 24 19 25 25 20 22 21 22 22 21 22 22 22 21 18 18 17 17 16 14 14 13 12 8
37 34 31 29 29 23 22 19 22 23 25 27 28 28 30 31 28 26 25 21 21 23 24 21 19 21 20 20 20 19 20 19 19 18 18 17 16 16 14 13 12 11 9 8
28 25 22 23 21 22 21 23 22 25 26 27 28 28 28 28 26 24 20 20 23 19 17 18 22 21 20 20 20 18 18 18 17 17 16 16 15 13 13 10 9 7 6 5
26 27 20 22 23 25 29 30 30 31 28 28 26 25 25 24 23 22 20 20 19 17 17 19 22 21 20 19 18 17 16 15 14 14 13 12 11 10 9 6 4 3 1 0
26 24 23 26 27 26 27 30 30 32 27 26 25 23 20 20 20 20 17 16 15 16 20 23 22 21 19 18 17 16 14 14 13 12 11 10 9 8 7 5 3 1 1 2
23 22 27 26 26 27 29 31 33 32 26 23 23 19 19 22 21 19 18 17 19 25 26 21 21 19 17 16 15 14 13 12 11 10 10 9 9 9 8 6 6 7 6 4

GFSNW_sfc_30mbdewp_120.txt.gz
Dewpoint
41 41 41 41 42 42 37 35 29 36 40 28 26 18 18 23 24 24 26 25 25 24 25 25 23 24 26 29 30 30 31 33 26 25 29 32 35 27 26 21 16 23 21 18
41 41 41 41 43 39 36 30 31 35 35 24 25 23 23 22 22 23 23 23 27 27 24 20 24 25 28 30 29 32 34 31 24 20 27 33 31 32 32 29 28 25 21 19
41 41 40 41 42 41 37 30 21 29 32 28 22 21 21 19 21 21 23 22 25 23 20 26 23 25 26 28 28 32 38 30 24 19 23 30 28 31 32 27 22 21 21 19
40 40 40 42 42 41 34 29 24 28 25 23 22 22 20 16 14 18 21 23 22 21 17 19 21 25 25 26 30 29 34 28 29 29 28 28 27 29 29 27 27 20 21 19
40 41 42 42 42 40 31 28 25 25 25 23 22 23 18 14 15 16 16 18 21 22 19 16 18 22 24 25 29 28 33 28 31 27 30 26 23 25 28 27 26 23 22 19
40 40 41 41 42 39 34 34 31 25 24 20 20 22 20 15 18 23 22 22 22 21 22 23 23 25 25 26 27 28 30 30 28 21 26 19 16 23 24 25 25 26 19 22
39 39 41 41 41 41 37 36 30 24 22 19 17 23 17 17 21 21 22 23 22 23 28 30 30 30 29 28 29 30 29 30 28 24 27 14 24 29 29 24 26 26 24 24
38 39 40 41 41 41 38 37 31 26 24 25 22 22 21 22 23 22 24 24 24 30 29 26 23 22 23 27 29 27 31 30 28 21 20 23 25 25 25 25 23 27 26 25
37 39 40 41 41 40 38 38 35 29 23 24 27 23 23 21 21 20 23 27 30 29 25 23 21 20 24 24 23 27 27 31 29 23 19 16 22 24 28 30 20 27 26 24
39 39 40 41 41 40 38 38 36 31 27 31 27 23 22 26 25 22 24 26 27 28 22 22 22 22 27 22 21 24 22 24 22 22 19 21 24 28 31 21 21 27 24 23
38 39 41 41 42 40 38 37 38 30 28 29 33 31 27 28 26 17 23 22 25 25 21 22 22 24 26 27 26 25 21 21 20 23 17 16 27 28 23 27 29 28 26 26
38 39 41 42 42 40 39 34 38 34 27 29 35 33 33 32 29 28 29 28 30 28 22 24 24 25 26 25 20 27 21 22 21 22 20 27 27 28 26 25 25 27 26 23
39 41 42 42 42 41 38 36 36 30 28 30 31 31 34 34 33 32 27 30 32 28 30 28 27 24 27 24 24 27 28 27 23 23 25 26 24 24 22 23 25 27 23 21
40 41 42 43 41 40 37 35 36 32 29 27 31 33 33 36 34 33 32 32 30 30 29 26 24 24 29 26 26 25 26 26 24 24 27 27 23 22 21 21 22 21 20 20
40 41 42 41 40 39 38 38 38 37 28 25 29 32 34 34 35 34 33 31 29 27 23 22 22 27 28 30 26 24 27 26 24 20 25 25 24 22 21 20 20 19 18 17
40 40 41 41 39 35 31 28 35 39 34 27 25 30 31 32 31 31 31 31 30 28 26 25 26 28 26 22 22 26 28 30 31 28 29 27 25 21 20 19 19 19 18 17
39 39 40 39 38 37 30 30 37 39 35 26 26 27 32 32 29 31 29 30 29 27 27 27 26 26 26 24 22 26 29 30 30 28 26 22 20 19 19 19 19 18 17 16
38 38 39 37 36 35 36 39 41 38 33 29 24 25 29 30 26 25 30 27 28 27 26 28 28 26 27 24 27 28 29 29 28 28 27 26 21 19 18 17 17 16 16 16
37 38 35 31 30 29 36 41 40 39 32 25 24 23 24 30 29 29 28 28 22 26 24 25 26 24 23 25 27 28 28 28 25 22 21 20 19 18 17 17 16 15 15 15
36 32 26 24 30 37 40 34 30 29 32 31 25 26 26 28 27 25 23 25 23 22 24 27 25 23 27 29 29 28 28 26 21 20 19 19 18 17 17 16 16 16 15 15
30 29 30 34 39 36 32 28 26 28 26 27 26 26 27 30 24 23 24 24 25 19 22 24 22 23 25 26 28 29 28 25 22 22 20 19 19 18 17 16 15 14 13 12
30 36 37 38 34 30 24 23 27 24 21 27 26 26 28 29 29 26 26 24 23 19 24 23 19 21 22 25 26 27 27 26 24 20 19 19 18 18 16 15 14 13 12 8
37 34 31 28 28 21 20 19 21 23 25 26 27 27 30 29 27 25 24 21 21 22 23 19 18 20 22 23 22 23 23 23 21 19 19 18 17 16 15 14 13 11 8 6
27 25 22 20 20 21 21 22 22 24 25 27 27 28 27 27 25 22 20 20 21 17 16 16 19 21 21 21 21 21 21 20 19 18 17 16 15 14 13 11 10 8 6 4
25 25 19 21 22 25 28 28 29 29 27 28 26 24 24 22 22 22 19 21 18 17 15 17 20 21 21 20 19 18 18 17 16 15 14 13 12 11 9 7 6 5 4 1
25 24 23 25 26 27 28 30 29 30 27 26 25 21 20 21 20 19 17 16 14 15 18 21 21 21 20 19 18 17 16 15 14 13 12 11 10 9 8 4 1 -0 -1 -1
22 23 26 26 26 27 29 31 32 29 26 23 22 18 17 22 19 18 18 16 16 20 25 24 21 20 19 17 16 15 14 13 12 11 11 9 8 7 6 3 3 3 3 2

GFSNW_sfc_30mbdewp_123.txt.gz
Dewpoint
44 44 43 42 40 41 39 36 29 38 39 31 26 17 20 25 24 26 25 25 24 23 26 24 23 23 27 29 30 28 31 31 25 27 29 31 32 29 27 23 19 25 23 18
40 41 42 41 40 41 38 33 33 37 36 23 23 23 23 24 24 23 23 25 25 27 24 19 24 25 27 29 28 30 34 29 21 16 24 25 30 33 35 30 28 24 22 18
41 41 41 41 42 42 36 30 27 31 34 29 23 23 20 19 22 23 23 25 26 23 21 25 22 24 25 29 28 32 37 29 22 19 23 27 26 29 30 31 24 21 19 18
41 41 42 41 42 42 34 29 27 31 27 24 24 22 19 18 17 20 23 23 21 21 16 20 20 25 24 26 31 30 34 28 30 29 28 26 25 26 28 25 27 22 20 18
41 41 42 43 42 40 31 27 25 27 25 25 22 22 17 15 16 17 19 18 21 23 18 13 14 20 24 25 29 29 34 28 31 27 30 27 23 25 26 25 23 22 21 18
42 42 42 42 42 39 33 33 29 26 23 22 20 21 17 16 21 23 20 22 22 21 21 23 22 23 24 24 25 27 30 30 28 23 28 26 18 23 24 24 25 26 19 22
41 41 41 41 41 41 36 35 28 24 20 19 20 20 17 18 20 22 23 24 21 23 29 30 31 29 28 28 28 28 28 29 30 24 27 15 24 29 28 24 26 25 23 24
40 40 41 41 41 41 37 36 29 25 22 21 23 20 22 23 24 24 23 23 25 30 27 26 23 23 26 28 29 29 30 30 27 23 20 23 26 25 25 25 22 26 26 25
40 40 41 41 42 40 38 37 36 28 22 23 24 22 21 20 21 20 24 27 31 27 24 23 21 18 24 23 23 28 29 30 29 23 19 16 22 25 28 29 19 25 23 24
39 40 41 41 41 40 37 36 37 31 29 31 26 21 22 26 23 20 23 26 27 27 23 23 22 23 27 21 20 22 21 23 22 23 20 21 24 27 30 21 21 24 23 21
39 40 41 41 41 41 36 36 37 31 30 31 32 29 27 27 23 13 23 22 26 24 21 22 23 25 26 26 25 24 21 21 20 23 20 17 26 29 24 27 29 26 24 21
39 41 41 41 41 40 38 30 36 34 30 31 34 33 33 29 26 28 30 27 29 27 23 24 25 26 27 25 20 27 20 22 21 22 21 26 27 26 26 28 27 27 23 22
39 41 42 42 41 40 36 34 34 32 31 31 31 31 33 34 33 32 27 30 31 28 29 29 27 25 27 24 24 25 27 27 22 23 25 25 24 23 24 27 28 25 22 21
41 42 42 42 40 39 36 34 36 32 31 28 30 33 33 35 33 33 32 32 31 30 29 27 25 26 29 27 26 25 27 26 24 24 26 24 23 22 23 23 22 20 20 19
41 42 42 41 40 39 38 38 38 36 28 28 29 32 34 35 34 33 32 30 28 27 24 24 24 28 28 29 26 25 27 25 22 21 26 25 23 22 22 21 20 19 18 17
41 42 41 40 38 34 31 26 35 38 34 28 27 30 33 31 32 31 31 31 29 28 26 25 26 29 27 24 23 27 28 30 31 27 28 27 25 22 21 20 19 18 17 16
41 40 39 39 39 39 32 29 34 39 34 28 27 28 32 32 31 30 29 30 29 27 28 27 26 28 27 25 23 25 28 30 29 27 24 21 21 19 19 19 19 18 16 15
40 39 39 39 38 38 36 39 41 38 30 28 24 28 29 30 26 26 30 28 28 28 27 29 28 27 27 24 26 28 29 29 26 27 27 23 21 19 19 18 17 16 15 15
38 36 34 31 30 33 37 41 37 37 29 24 24 24 25 30 29 29 28 27 23 26 25 26 27 24 22 24 27 28 28 27 26 24 22 21 19 18 17 16 16 16 16 15
34 29 24 24 32 39 38 32 28 29 31 30 24 26 27 28 27 25 24 25 24 22 25 27 26 25 26 29 28 29 28 26 23 22 20 19 18 17 17 16 16 16 16 15
29 30 28 32 38 35 30 26 24 27 24 26 26 26 27 29 24 23 25 24 25 19 23 24 23 23 25 27 29 29 28 24 23 23 22 21 20 18 17 17 16 16 15 15
30 33 38 38 32 29 23 23 27 24 21 26 26 26 28 29 29 25 26 24 23 18 25 23 19 22 24 28 28 29 27 24 23 22 21 20 20 19 18 16 15 14 13 11
37 32 30 27 27 20 19 18 21 21 25 27 27 27 30 28 27 25 24 21 20 23 21 19 20 20 23 25 26 27 27 25 22 20 20 20 19 18 17 15 14 12 10 6
26 24 22 19 19 20 20 22 22 24 25 27 28 28 27 26 25 22 21 20 21 17 16 14 19 21 23 24 24 24 24 23 21 19 19 18 17 15 15 13 11 9 5 2
25 23 19 21 22 24 27 27 28 28 27 28 25 24 24 22 22 20 20 20 18 17 14 17 22 22 22 22 22 22 21 20 19 18 16 15 13 12 10 9 9 7 5 4
24 24 23 25 26 27 29 28 30 28 27 25 24 21 21 21 20 19 17 16 13 15 18 21 23 21 21 21 20 20 18 18 17 15 14 12 11 10 9 6 6 4 3 0
21 23 26 25 26 26 29 31 31 28 26 22 21 17 17 21 18 17 18 16 16 18 23 27 24 21 20 19 18 17 16 15 15 13 13 12 9 8 8 7 4 3 2 1

GFSNW_sfc_30mbdewp_129.txt.gz
Dewpoint
51 52 51 49 45 43 41 37 29 42 42 32 32 31 30 20 20 26 26 21 20 24 24 24 20 21 26 26 26 26 28 32 26 23 23 26 26 25 29 21 18 23 25 24
48 46 45 44 44 42 39 32 33 41 40 28 29 29 27 20 20 23 23 25 29 31 31 28 32 25 28 28 27 27 30 30 23 22 27 22 21 24 26 28 34 26 25 23
46 45 44 45 44 41 39 34 27 32 34 36 29 26 22 19 21 20 22 24 30 29 30 30 30 27 26 27 28 31 34 26 26 21 25 22 22 23 24 25 27 29 26 22
43 43 43 43 43 42 40 36 29 30 27 31 28 21 22 19 18 21 24 26 25 25 25 23 25 23 25 26 31 30 33 28 28 24 25 25 27 26 28 29 29 27 24 22
42 43 43 43 43 43 38 33 28 27 28 30 27 25 24 20 19 21 20 20 21 18 18 20 21 27 25 27 29 32 33 30 30 28 29 25 25 27 29 26 25 24 22 22
43 43 43 44 43 43 38 39 33 31 33 31 29 30 25 20 21 22 21 19 19 15 14 18 22 24 28 28 27 28 30 30 27 26 29 27 23 26 26 25 25 24 23 24
43 42 43 43 43 41 38 36 37 32 29 29 29 24 23 20 21 19 18 21 18 25 24 28 28 25 25 27 27 27 25 25 25 27 26 20 26 27 26 25 25 25 25 25
41 42 42 43 42 42 37 36 34 29 29 27 23 20 19 19 20 20 21 22 25 25 24 26 25 26 27 26 27 28 27 25 23 22 23 24 26 27 26 26 24 26 26 26
42 42 42 42 42 42 39 37 39 32 26 25 23 20 19 20 21 23 27 29 30 27 17 22 13 13 13 20 24 27 26 27 26 23 19 18 25 25 26 25 23 24 26 26
41 42 42 41 41 40 40 36 43 33 25 22 20 19 21 20 21 20 25 26 25 26 15 19 12 13 16 17 17 23 23 22 22 22 20 23 24 27 29 23 25 25 26 27
40 41 42 41 41 39 38 37 41 33 29 29 28 26 24 21 19 20 23 22 23 19 17 13 16 18 20 21 18 19 18 18 22 22 20 21 26 29 26 28 26 24 24 25
41 41 42 41 41 39 38 33 36 34 29 33 34 34 33 30 26 22 26 21 17 18 14 18 19 22 25 18 21 22 20 21 25 24 25 28 29 31 29 28 25 24 24 23
41 42 42 40 39 39 36 33 34 33 32 27 27 30 34 35 35 35 23 27 30 28 33 27 25 22 21 21 18 24 25 25 24 25 26 26 27 30 29 27 26 24 23 23
42 42 40 40 40 39 38 36 38 31 28 27 28 32 33 35 33 33 34 33 34 32 31 27 25 21 28 20 25 21 25 25 25 25 25 25 27 30 30 27 24 22 21 21
42 41 41 41 40 40 38 37 37 37 29 26 29 31 34 32 31 30 31 30 29 27 25 27 23 24 25 25 25 23 25 27 26 27 27 27 26 28 28 25 22 21 20 18
42 42 39 36 34 35 32 36 37 37 30 27 27 31 31 31 30 29 28 28 26 23 22 23 26 31 29 22 19 28 27 27 29 29 29 29 28 27 25 23 21 20 18 17
42 40 39 40 39 37 32 34 37 39 37 29 24 26 30 30 28 29 27 27 26 22 21 21 22 26 26 26 20 27 28 30 29 29 29 27 26 25 24 21 20 19 16 15
41 41 40 39 39 39 34 36 38 39 30 27 25 28 27 30 25 26 29 26 24 26 24 23 20 25 24 20 25 27 28 29 29 28 27 27 25 24 21 20 18 16 15 13
40 37 36 33 34 32 32 38 39 37 33 28 29 24 26 29 28 28 27 26 26 26 25 23 22 21 20 21 22 25 27 27 27 27 26 25 23 21 20 19 17 15 14 13
34 31 32 32 35 40 38 34 32 33 30 29 27 29 27 27 26 26 27 28 24 22 24 26 24 22 27 24 23 25 27 27 27 26 24 23 22 21 20 19 18 16 15 13
30 33 32 37 38 33 32 29 27 27 26 28 27 28 28 30 26 26 28 25 25 20 25 23 21 20 26 27 26 27 28 27 27 26 26 24 23 22 20 20 19 18 15 14
32 36 37 36 31 30 28 25 25 21 20 27 27 27 27 31 31 26 28 25 26 19 26 24 21 25 25 28 28 28 28 27 26 26 25 24 23 22 21 20 19 18 17 17
36 33 32 31 29 24 22 21 20 23 27 30 30 30 30 31 31 29 26 26 24 26 23 21 20 25 26 28 29 29 28 28 27 25 25 24 23 23 22 20 20 20 20 20
26 28 22 26 24 23 22 20 25 30 29 30 31 30 29 31 29 31 25 27 26 22 20 16 24 29 27 30 30 29 28 28 27 26 25 25 25 25 24 23 22 21 19 17
28 27 22 23 27 29 30 30 29 30 32 32 30 29 29 29 28 27 25 24 20 18 17 27 32 31 29 30 31 33 30 28 28 28 26 25 24 23 23 22 21 19 16 13
27 27 25 27 27 28 30 31 29 32 33 31 27 27 27 26 26 23 23 15 13 22 29 31 32 30 30 31 32 32 31 30 30 28 26 24 22 22 21 20 19 16 13 12
26 26 30 31 31 30 30 32 31 34 31 30 24 24 23 24 21 20 19 22 27 30 32 33 30 30 30 31 30 30 30 29 29 26 24 23 22 21 18 17 16 15 14 13

GFSNW_sfc_30mbdewp_135.txt.gz
Dewpoint
43 46 45 45 48 48 47 42 35 46 45 33 33 30 27 27 27 27 27 36 31 24 19 22 20 21 21 27 28 27 29 31 26 24 26 23 24 24 26 22 22 26 27 23
45 45 43 44 50 49 45 39 36 45 42 29 29 31 31 28 27 28 30 30 31 31 23 20 24 25 25 27 27 28 29 30 22 18 23 28 24 28 25 32 33 25 22 21
44 43 43 44 47 50 39 35 29 36 39 35 28 29 30 29 29 30 31 27 32 31 29 32 26 28 30 30 33 34 33 29 25 26 28 31 22 22 24 24 22 23 25 23
43 42 43 44 45 45 39 36 31 33 28 32 32 31 29 29 28 30 29 26 28 28 29 28 29 31 30 29 32 30 33 30 29 29 28 28 26 25 26 25 28 26 23 23
42 42 42 44 45 44 38 32 32 33 30 33 32 33 29 28 27 30 26 27 28 29 27 27 27 29 29 28 30 29 32 28 28 25 28 26 24 24 26 28 28 28 25 23
41 42 43 43 45 44 38 40 38 33 31 32 31 32 28 27 30 26 27 28 28 29 28 29 29 31 28 27 29 28 31 30 27 22 27 26 24 25 25 26 26 27 23 24
43 42 42 43 44 44 42 42 41 33 29 29 30 33 30 32 28 24 25 25 28 29 29 29 30 30 29 30 30 31 31 30 28 25 28 20 25 29 27 25 25 26 25 25
43 43 42 41 44 44 42 43 41 36 28 28 34 35 31 30 27 26 27 28 26 29 27 25 24 26 27 28 35 34 34 31 26 23 25 24 25 26 25 23 24 25 25 25
42 43 42 43 43 44 43 43 44 40 32 30 31 31 31 29 29 27 32 29 30 28 27 25 22 22 23 22 23 33 32 31 30 24 22 20 25 26 26 26 23 26 26 24
42 43 42 41 42 44 43 42 45 41 35 36 35 33 32 33 33 32 33 29 27 29 24 24 19 17 20 21 20 24 25 25 23 23 22 26 26 26 27 22 21 27 27 26
42 41 41 42 44 43 42 40 44 41 37 36 36 36 34 33 33 30 30 27 25 26 22 23 19 19 22 24 25 24 24 23 23 24 22 21 27 27 25 27 28 28 28 27
42 42 43 43 43 42 42 40 47 47 38 37 37 37 36 34 32 29 29 24 19 23 22 20 18 23 25 22 21 25 26 26 26 26 25 29 32 32 31 27 27 29 28 28
41 41 42 43 42 41 43 43 45 40 36 36 34 32 33 33 37 32 23 28 26 28 36 31 29 22 24 21 23 24 26 29 25 25 27 29 30 30 28 27 26 27 26 25
40 41 42 42 41 42 44 41 41 38 33 32 32 33 31 33 36 35 34 33 33 34 34 28 27 25 29 27 27 29 27 28 27 26 27 27 29 30 27 26 26 25 24 23
40 42 41 40 38 42 42 41 40 40 31 30 30 31 31 33 33 33 34 32 31 31 26 27 25 28 26 25 26 28 28 27 24 21 27 26 28 30 27 25 24 24 23 21
42 41 37 37 38 40 38 30 38 39 33 30 27 30 29 30 32 33 31 31 32 29 26 28 31 32 31 24 24 27 31 32 32 31 29 30 32 30 27 25 24 22 21 20
41 37 35 35 36 38 36 34 36 40 40 29 26 27 29 28 27 28 27 29 28 28 24 25 27 27 28 25 26 29 30 31 31 32 31 30 30 29 29 27 25 24 21 19
37 38 40 38 38 38 34 36 37 41 37 30 27 27 27 29 27 27 31 25 28 27 25 24 28 25 25 23 28 29 29 31 31 30 30 30 30 29 25 22 21 18 17 14
40 39 39 40 37 33 33 37 39 42 35 29 27 25 23 31 29 29 28 30 25 27 27 25 25 23 20 22 27 28 29 29 29 30 28 28 26 24 22 20 19 17 15 13
36 37 33 27 35 37 39 33 29 32 31 32 28 30 26 30 29 28 29 30 25 24 26 26 25 27 26 22 26 28 29 29 28 28 27 27 25 23 21 20 18 17 15 14
35 33 33 36 37 35 34 24 25 29 26 31 30 28 28 32 27 27 30 26 26 23 24 24 24 27 27 24 28 28 28 29 28 28 28 27 25 23 21 20 19 18 16 15
34 34 38 37 33 31 27 26 24 24 25 28 28 30 33 32 34 27 29 26 28 25 27 24 22 27 26 26 28 28 28 28 28 27 27 26 25 24 22 21 20 18 17 16
37 32 29 31 28 23 20 17 19 26 30 30 30 28 30 32 32 30 27 25 26 28 23 22 26 26 28 28 29 29 29 27 28 28 27 27 25 24 23 22 21 19 18 16
26 19 14 25 21 27 28 29 30 30 31 31 30 31 30 32 27 30 23 27 27 22 20 22 26 28 30 30 30 28 28 27 27 26 26 26 25 24 23 22 21 19 17 16
27 26 20 25 30 30 30 31 31 32 34 32 30 30 30 29 27 27 25 23 21 21 22 31 30 29 31 32 31 29 27 27 26 25 24 23 23 22 22 22 20 19 18 17
27 27 24 26 26 27 29 30 31 34 33 32 30 28 26 26 26 24 22 19 19 28 32 32 30 31 33 32 31 30 29 28 26 24 23 23 22 22 22 20 19 19 18 16
27 27 31 31 30 28 29 32 32 36 32 27 26 24 24 27 23 21 27 28 31 33 30 29 30 30 30 31 32 29 29 27 26 25 23 23 23 22 21 19 18 17 15 14

GFSNW_sfc_30mbdewp_138.txt.gz
Dewpoint
44 43 46 45 46 45 46 40 32 44 46 34 33 29 27 25 24 23 25 35 34 30 22 18 19 19 20 27 27 21 30 28 22 23 26 27 27 20 21 19 20 25 22 22
43 44 44 44 45 47 43 35 35 46 43 28 29 30 29 28 25 25 26 23 33 33 28 20 22 23 26 29 28 27 30 28 24 21 21 24 29 27 30 33 33 26 23 21
42 44 44 44 44 49 44 36 30 38 40 34 28 27 27 28 29 26 24 28 29 32 30 30 22 26 30 29 31 33 31 30 24 20 24 29 24 27 25 27 25 23 23 23
43 43 44 44 44 45 40 36 33 34 31 33 32 28 27 27 27 29 29 29 30 29 27 28 26 29 30 32 35 34 31 26 27 30 31 32 31 27 26 22 24 20 20 24
43 43 43 45 43 43 37 33 32 35 33 32 34 33 29 26 28 27 27 28 29 30 26 24 26 29 31 31 33 30 33 27 30 27 30 28 26 28 27 26 27 29 26 24
43 42 43 44 45 42 37 38 39 36 32 33 31 32 31 30 29 31 28 26 29 29 28 30 30 29 30 31 31 30 30 29 27 23 27 27 24 25 24 24 27 28 24 25
42 42 43 44 44 44 41 40 38 32 29 31 31 34 34 33 32 30 27 30 29 30 31 31 30 29 30 30 30 30 30 29 27 24 27 19 22 29 27 26 26 26 26 25
42 42 43 42 43 44 43 43 41 37 29 31 32 34 34 33 31 30 29 29 30 31 30 27 26 28 28 28 28 31 30 30 26 23 24 24 25 27 26 25 24 26 26 25
42 42 43 42 42 43 44 42 44 40 33 29 31 34 33 32 32 32 32 30 31 30 28 27 24 23 25 25 27 35 35 34 29 27 22 19 25 27 27 26 21 26 26 25
43 43 43 43 42 42 44 42 45 40 35 36 33 31 31 32 31 32 32 29 29 29 27 24 21 20 24 23 24 28 31 31 27 25 24 25 27 26 27 20 20 26 26 25
43 43 43 42 42 44 43 40 44 41 37 37 38 37 33 34 33 29 31 31 31 28 24 23 22 18 20 23 25 26 27 25 24 24 22 18 28 26 24 26 29 27 26 25
42 41 41 42 44 44 43 38 45 45 40 38 40 39 38 38 34 33 32 29 29 26 24 23 22 24 25 26 23 30 24 25 24 25 23 29 31 30 30 28 29 28 27 26
41 42 43 43 43 42 42 40 44 42 37 37 37 35 36 38 38 36 32 33 27 27 30 30 28 22 26 26 24 27 28 29 25 25 27 29 29 30 28 28 28 28 28 27
41 41 42 43 43 43 43 41 44 40 36 32 33 37 32 36 38 34 33 31 35 35 35 29 28 24 29 26 28 26 27 27 26 26 27 29 29 29 27 27 27 26 26 25
41 42 42 43 43 45 45 45 43 42 32 31 30 31 32 34 35 33 33 32 31 29 26 26 25 29 26 27 28 26 28 26 23 20 26 25 27 28 27 25 25 24 23 22
41 42 42 41 43 45 42 36 38 39 35 29 27 31 29 30 33 31 30 31 31 28 26 30 32 31 29 22 25 30 31 31 31 30 28 29 30 27 26 25 25 24 23 22
40 42 41 41 41 39 35 31 35 39 37 29 26 26 29 29 30 30 28 30 30 27 26 27 28 26 29 25 26 30 31 32 31 31 31 30 27 26 25 24 23 23 21 19
42 40 41 39 39 38 31 34 39 42 33 31 26 26 26 30 27 25 31 27 28 28 24 27 26 24 25 24 29 30 31 31 31 30 30 31 30 28 26 25 23 21 19 14
40 39 39 39 37 30 30 37 41 42 32 27 26 24 23 31 29 30 29 30 24 29 26 24 25 23 17 26 29 30 30 30 30 30 30 30 29 28 26 23 20 18 14 12
38 37 28 27 31 37 37 28 24 31 32 33 28 29 28 28 29 27 27 28 23 23 26 27 25 26 28 29 30 30 30 30 30 28 27 27 25 23 22 20 19 17 14 13
35 31 30 34 38 30 31 22 22 28 27 31 29 29 28 33 24 26 29 25 26 23 23 19 23 25 25 27 30 30 30 30 29 29 28 27 25 22 21 20 19 17 15 13
32 33 37 35 32 29 23 25 24 26 25 29 28 30 31 33 31 27 28 24 27 24 27 23 24 27 27 28 29 29 30 29 29 29 28 27 25 23 22 20 19 17 16 16
34 26 26 21 25 21 13 12 23 25 29 30 30 27 30 31 30 28 26 25 25 26 21 21 25 26 28 28 29 29 29 29 28 28 28 27 25 23 22 21 20 19 17 16
22 15 13 21 20 26 26 28 29 30 30 29 30 31 29 29 27 28 22 26 26 20 20 23 25 28 29 30 29 27 27 27 28 27 27 25 24 23 22 21 19 17 15 14
26 24 21 24 29 29 30 30 30 33 31 30 29 29 29 27 27 26 24 24 20 21 20 27 29 29 31 29 28 27 26 25 25 25 24 23 22 22 21 19 18 17 15 14
26 27 24 26 25 26 28 29 31 33 31 30 29 28 25 26 24 24 20 20 18 26 30 29 30 31 31 30 28 27 26 25 24 23 23 22 21 21 20 18 17 16 15 14
26 27 31 30 27 28 28 31 33 34 30 26 26 23 24 27 23 22 28 26 29 29 29 29 29 30 31 31 29 29 26 24 23 22 22 20 20 20 20 19 17 17 16 15

GFSNW_sfc_30mbdewp_141.txt.gz
Dewpoint
45 45 44 44 46 45 44 39 29 42 45 33 32 28 26 26 24 24 21 29 28 24 25 24 20 19 19 22 21 19 23 24 20 20 22 27 28 26 28 26 21 24 20 19
44 45 44 46 45 45 43 35 34 44 40 27 27 27 27 28 25 23 23 21 27 34 28 23 23 21 23 29 25 24 30 25 20 20 23 26 29 31 30 30 28 21 20 20
44 44 45 45 44 46 43 37 30 36 38 35 26 24 25 24 28 27 24 27 25 27 29 29 28 25 28 30 29 31 31 27 24 18 23 29 27 28 31 32 27 25 25 24
44 44 44 45 45 46 44 38 32 32 29 31 32 27 26 23 23 27 27 26 26 25 26 27 28 29 30 32 36 34 30 25 28 30 31 31 31 29 27 27 26 24 22 23
43 43 43 44 45 45 39 34 34 35 32 32 32 31 27 25 24 24 26 25 24 24 23 25 26 28 30 28 33 34 34 28 32 29 31 31 30 31 32 28 26 27 27 26
43 43 43 44 45 43 38 38 38 36 33 32 31 29 28 27 29 28 26 27 26 27 29 29 29 31 31 33 32 33 34 31 29 23 28 30 25 27 27 27 27 27 23 24
43 43 43 43 44 44 40 39 38 32 29 31 30 31 33 32 30 29 29 28 28 29 32 33 30 30 30 32 31 31 31 31 29 24 26 18 22 28 27 26 26 28 26 25
44 43 43 43 43 45 42 43 39 34 30 31 31 32 34 36 36 34 32 34 34 32 30 31 30 28 26 27 30 31 31 32 27 21 23 22 25 26 26 26 24 27 26 26
43 43 43 43 42 43 43 43 43 39 33 31 31 32 34 31 32 33 35 33 32 32 31 31 25 22 24 23 27 30 31 30 28 27 21 19 23 27 27 25 20 27 26 25
44 43 43 43 43 43 42 41 43 39 35 36 34 32 33 37 34 32 33 30 30 32 31 28 26 25 25 25 24 28 29 30 27 26 24 24 28 27 26 20 19 27 26 25
43 43 43 43 44 43 42 40 43 41 37 36 39 35 34 34 34 31 33 33 33 31 29 28 27 24 24 23 26 28 27 27 26 27 24 18 27 27 23 25 28 27 26 25
43 43 42 43 43 43 44 38 42 44 39 38 41 40 40 37 34 32 33 31 31 30 29 26 25 22 26 25 20 30 25 25 23 24 23 29 31 29 29 29 28 27 26 25
42 42 43 43 43 43 44 39 40 43 39 37 38 37 38 42 38 36 31 33 30 28 30 27 26 24 28 25 25 29 29 28 25 25 27 29 29 29 28 29 29 28 27 26
42 42 42 43 44 44 42 39 40 43 37 32 34 38 36 40 39 39 38 37 36 37 37 30 29 23 29 26 27 26 28 27 26 25 27 29 29 29 28 28 28 28 27 26
41 41 42 43 43 43 43 43 41 45 37 31 33 34 33 36 38 36 37 37 35 32 28 26 25 29 28 28 28 26 28 26 22 19 24 24 25 28 28 27 26 27 26 24
42 41 43 43 43 42 43 36 43 45 40 32 29 36 31 33 36 36 34 35 32 29 28 30 32 32 27 23 24 29 31 29 27 28 28 28 29 28 26 25 25 25 24 22
41 41 42 42 43 43 39 35 39 40 37 29 27 30 29 30 30 31 29 31 30 27 27 27 28 26 28 27 23 30 32 32 31 31 29 27 26 25 26 25 25 24 22 21
41 42 42 43 44 43 37 36 40 42 33 31 26 26 26 30 27 25 31 27 28 29 25 28 24 24 24 22 29 31 31 31 31 30 30 29 27 25 24 24 23 20 17 14
42 43 43 41 38 34 32 38 41 40 31 26 25 23 23 30 29 29 30 27 24 29 25 24 24 22 17 23 30 30 30 28 29 30 30 28 26 25 24 22 21 18 15 14
42 40 32 32 31 38 37 28 26 30 33 31 27 29 26 28 28 27 26 26 24 23 26 27 25 24 28 29 31 31 31 31 30 28 29 29 27 26 24 22 21 19 16 15
36 31 28 32 38 29 27 22 23 28 28 30 29 29 27 32 22 26 28 24 26 21 24 17 23 24 23 28 30 32 31 31 29 28 29 29 28 26 24 22 20 17 14 13
33 34 35 33 30 25 20 23 24 26 26 29 28 30 31 32 30 28 28 24 26 22 26 23 22 26 28 29 30 31 31 31 30 29 28 28 26 25 23 21 19 17 15 15
32 25 22 19 21 18 9 12 24 25 29 30 29 27 30 29 29 27 25 24 24 25 21 19 23 26 28 29 30 30 30 30 29 29 29 27 25 24 22 21 20 18 16 15
20 14 16 17 22 24 26 27 28 30 29 29 30 29 28 27 27 26 22 25 25 18 18 22 24 27 28 29 29 28 28 28 28 28 28 26 25 23 21 21 20 18 15 14
25 24 21 24 28 29 30 30 29 31 30 29 27 27 27 26 26 24 24 23 20 20 19 25 27 29 29 28 27 27 26 26 26 26 25 24 22 22 20 18 18 17 15 13
27 28 23 25 25 26 28 30 31 33 30 29 29 26 23 25 23 22 17 18 16 23 29 28 29 30 29 28 27 26 25 25 25 24 23 21 21 21 19 17 16 15 14 12
26 27 31 27 26 26 29 31 33 34 28 25 26 22 23 26 23 24 26 23 27 28 28 29 30 30 30 29 28 26 25 24 23 22 21 20 19 19 19 18 15 15 13 12